2016 Cux-Wetter.de -Die Nutzung der Wetterdaten nur mit ausdrcklicher Genehmigung
Wetterdaten: Dienstag, 01.10.2019
Datum Zeit Temp. A. Feuchte A. Luftdruck Regen Wind Richtung Richtung Sonnenschein Solar Taupunkt Windchill Windben
01.10.2019 00:00 12,6 C 94 % 1005,1 hPa 0,0 l/m 9,3 km/h (2 Bft) SW 219 0 min 0 W/m 11,7 C 10,8 C 12,9 km/h (3 Bft)
01.10.2019 00:03 12,6 C 94 % 1005,0 hPa 0,0 l/m 9,3 km/h (2 Bft) SW 219 0 min 0 W/m 11,7 C 10,8 C 17,7 km/h (3 Bft)
01.10.2019 00:06 12,6 C 94 % 1005,0 hPa 0,0 l/m 11,3 km/h (2 Bft) S-SW 209 0 min 0 W/m 11,7 C 9,8 C 19,3 km/h (3 Bft)
01.10.2019 00:09 12,6 C 94 % 1005,0 hPa 0,0 l/m 9,0 km/h (2 Bft) W-SW 245 0 min 0 W/m 11,7 C 11,0 C 17,7 km/h (3 Bft)
01.10.2019 00:12 12,6 C 94 % 1005,0 hPa 0,0 l/m 9,6 km/h (2 Bft) W-SW 241 0 min 0 W/m 11,7 C 10,7 C 19,3 km/h (3 Bft)
01.10.2019 00:15 12,6 C 94 % 1004,9 hPa 0,0 l/m 8,8 km/h (2 Bft) SW 223 0 min 0 W/m 11,7 C 11,1 C 14,5 km/h (3 Bft)
01.10.2019 00:18 12,6 C 95 % 1004,9 hPa 0,0 l/m 7,4 km/h (2 Bft) SW 226 0 min 0 W/m 11,8 C 12,0 C 12,9 km/h (3 Bft)
01.10.2019 00:21 12,6 C 95 % 1004,9 hPa 0,0 l/m 8,7 km/h (2 Bft) SW 234 0 min 0 W/m 11,8 C 11,2 C 14,5 km/h (3 Bft)
01.10.2019 00:24 12,6 C 95 % 1004,8 hPa 0,0 l/m 10,4 km/h (2 Bft) SW 236 0 min 0 W/m 11,8 C 10,3 C 19,3 km/h (3 Bft)
01.10.2019 00:27 12,7 C 95 % 1004,8 hPa 0,0 l/m 11,2 km/h (2 Bft) SW 229 0 min 0 W/m 11,9 C 10,0 C 19,3 km/h (3 Bft)
01.10.2019 00:30 12,7 C 95 % 1004,7 hPa 0,0 l/m 9,9 km/h (2 Bft) SW 234 0 min 0 W/m 11,9 C 10,6 C 16,1 km/h (3 Bft)
01.10.2019 00:33 12,6 C 95 % 1004,8 hPa 0,0 l/m 9,7 km/h (2 Bft) W-SW 253 0 min 0 W/m 11,8 C 10,6 C 17,7 km/h (3 Bft)
01.10.2019 00:36 12,6 C 95 % 1004,8 hPa 0,0 l/m 8,2 km/h (2 Bft) W-SW 246 0 min 0 W/m 11,8 C 11,5 C 16,1 km/h (3 Bft)
01.10.2019 00:39 12,6 C 95 % 1004,7 hPa 0,0 l/m 10,1 km/h (2 Bft) W 277 0 min 0 W/m 11,8 C 10,4 C 19,3 km/h (3 Bft)
01.10.2019 00:42 12,6 C 95 % 1004,7 hPa 0,0 l/m 3,7 km/h (1 Bft) W 277 0 min 0 W/m 11,8 C 12,6 C 11,3 km/h (2 Bft)
01.10.2019 00:45 12,6 C 95 % 1004,7 hPa 0,2 l/m 1,5 km/h (1 Bft) W 277 0 min 0 W/m 11,8 C 12,6 C 4,8 km/h (1 Bft)
01.10.2019 00:48 12,6 C 95 % 1004,7 hPa 0,0 l/m 3,6 km/h (1 Bft) W 277 0 min 0 W/m 11,8 C 12,6 C 6,4 km/h (2 Bft)
01.10.2019 00:51 12,5 C 95 % 1004,8 hPa 0,2 l/m 3,1 km/h (1 Bft) W 277 0 min 0 W/m 11,7 C 12,5 C 6,4 km/h (2 Bft)
01.10.2019 00:54 12,5 C 95 % 1004,7 hPa 0,8 l/m 4,0 km/h (1 Bft) W 277 0 min 0 W/m 11,7 C 12,5 C 9,7 km/h (2 Bft)
01.10.2019 00:57 12,5 C 95 % 1004,7 hPa 0,4 l/m 3,4 km/h (1 Bft) W 277 0 min 0 W/m 11,7 C 12,5 C 6,4 km/h (2 Bft)
01.10.2019 01:00 12,4 C 95 % 1004,7 hPa 0,8 l/m 4,1 km/h (1 Bft) W 277 0 min 0 W/m 11,6 C 12,4 C 11,3 km/h (2 Bft)
01.10.2019 01:03 12,4 C 95 % 1004,6 hPa 0,6 l/m 2,6 km/h (1 Bft) W 277 0 min 0 W/m 11,6 C 12,4 C 4,8 km/h (1 Bft)
01.10.2019 01:06 12,4 C 95 % 1004,6 hPa 0,2 l/m 3,3 km/h (1 Bft) W 277 0 min 0 W/m 11,6 C 12,4 C 6,4 km/h (2 Bft)
01.10.2019 01:09 12,4 C 95 % 1004,6 hPa 0,0 l/m 2,3 km/h (1 Bft) W 277 0 min 0 W/m 11,6 C 12,4 C 4,8 km/h (1 Bft)
01.10.2019 01:12 12,4 C 95 % 1004,6 hPa 0,0 l/m 3,5 km/h (1 Bft) W 277 0 min 0 W/m 11,6 C 12,4 C 6,4 km/h (2 Bft)
01.10.2019 01:15 12,3 C 95 % 1004,5 hPa 0,2 l/m 2,1 km/h (1 Bft) W 277 0 min 0 W/m 11,5 C 12,3 C 6,4 km/h (2 Bft)
01.10.2019 01:18 12,3 C 95 % 1004,5 hPa 0,0 l/m 3,8 km/h (1 Bft) W 277 0 min 0 W/m 11,5 C 12,3 C 9,7 km/h (2 Bft)
01.10.2019 01:21 12,3 C 95 % 1004,5 hPa 0,0 l/m 1,7 km/h (1 Bft) W 277 0 min 0 W/m 11,5 C 12,3 C 4,8 km/h (1 Bft)
01.10.2019 01:24 12,3 C 95 % 1004,4 hPa 0,0 l/m 6,3 km/h (2 Bft) W 275 0 min 0 W/m 11,5 C 12,3 C 12,9 km/h (3 Bft)
01.10.2019 01:27 12,3 C 95 % 1004,3 hPa 0,0 l/m 6,0 km/h (2 Bft) SW 222 0 min 0 W/m 11,5 C 12,3 C 11,3 km/h (2 Bft)
01.10.2019 01:30 12,3 C 95 % 1004,3 hPa 0,0 l/m 4,4 km/h (1 Bft) SW 222 0 min 0 W/m 11,5 C 12,3 C 8,0 km/h (2 Bft)
01.10.2019 01:33 12,2 C 95 % 1004,3 hPa 0,0 l/m 4,2 km/h (1 Bft) SW 223 0 min 0 W/m 11,4 C 12,2 C 8,0 km/h (2 Bft)
01.10.2019 01:36 12,3 C 95 % 1004,2 hPa 0,0 l/m 4,5 km/h (1 Bft) SW 223 0 min 0 W/m 11,5 C 12,3 C 8,0 km/h (2 Bft)
01.10.2019 01:39 12,3 C 95 % 1004,3 hPa 0,0 l/m 6,5 km/h (2 Bft) SW 232 0 min 0 W/m 11,5 C 12,3 C 12,9 km/h (3 Bft)
01.10.2019 01:42 12,3 C 95 % 1004,2 hPa 0,0 l/m 7,2 km/h (2 Bft) SW 226 0 min 0 W/m 11,5 C 11,8 C 11,3 km/h (2 Bft)
01.10.2019 01:45 12,3 C 95 % 1004,2 hPa 0,0 l/m 6,3 km/h (2 Bft) SW 225 0 min 0 W/m 11,5 C 12,3 C 11,3 km/h (2 Bft)
01.10.2019 01:48 12,3 C 95 % 1004,2 hPa 0,0 l/m 6,0 km/h (2 Bft) SW 225 0 min 0 W/m 11,5 C 12,3 C 11,3 km/h (2 Bft)
01.10.2019 01:51 12,3 C 95 % 1004,1 hPa 0,0 l/m 8,1 km/h (2 Bft) SW 222 0 min 0 W/m 11,5 C 11,2 C 12,9 km/h (3 Bft)
01.10.2019 01:54 12,3 C 95 % 1004,1 hPa 0,0 l/m 8,1 km/h (2 Bft) SW 221 0 min 0 W/m 11,5 C 11,2 C 12,9 km/h (3 Bft)
01.10.2019 01:57 12,3 C 95 % 1004,0 hPa 0,0 l/m 6,5 km/h (2 Bft) SW 221 0 min 0 W/m 11,5 C 12,3 C 9,7 km/h (2 Bft)
01.10.2019 02:00 12,4 C 95 % 1004,0 hPa 0,0 l/m 7,0 km/h (2 Bft) SW 221 0 min 0 W/m 11,6 C 12,0 C 12,9 km/h (3 Bft)
01.10.2019 02:03 12,4 C 95 % 1003,9 hPa 0,0 l/m 6,9 km/h (2 Bft) SW 221 0 min 0 W/m 11,6 C 12,1 C 9,7 km/h (2 Bft)
01.10.2019 02:06 12,4 C 95 % 1003,9 hPa 0,0 l/m 5,6 km/h (2 Bft) SW 220 0 min 0 W/m 11,6 C 12,4 C 11,3 km/h (2 Bft)
01.10.2019 02:09 12,4 C 95 % 1003,8 hPa 0,0 l/m 5,1 km/h (1 Bft) SW 220 0 min 0 W/m 11,6 C 12,4 C 9,7 km/h (2 Bft)
01.10.2019 02:12 12,4 C 95 % 1003,8 hPa 0,0 l/m 5,9 km/h (2 Bft) SW 220 0 min 0 W/m 11,6 C 12,4 C 8,0 km/h (2 Bft)
01.10.2019 02:15 12,4 C 95 % 1003,7 hPa 0,0 l/m 4,4 km/h (1 Bft) SW 220 0 min 0 W/m 11,6 C 12,4 C 6,4 km/h (2 Bft)
01.10.2019 02:18 12,4 C 95 % 1003,7 hPa 0,0 l/m 4,6 km/h (1 Bft) SW 220 0 min 0 W/m 11,6 C 12,4 C 8,0 km/h (2 Bft)
01.10.2019 02:21 12,4 C 95 % 1003,6 hPa 0,0 l/m 3,9 km/h (1 Bft) SW 220 0 min 0 W/m 11,6 C 12,4 C 6,4 km/h (2 Bft)
01.10.2019 02:24 12,4 C 95 % 1003,6 hPa 0,2 l/m 4,9 km/h (1 Bft) SW 220 0 min 0 W/m 11,6 C 12,4 C 9,7 km/h (2 Bft)
01.10.2019 02:27 12,4 C 95 % 1003,6 hPa 0,0 l/m 7,1 km/h (2 Bft) SW 220 0 min 0 W/m 11,6 C 11,9 C 11,3 km/h (2 Bft)
01.10.2019 02:30 12,4 C 95 % 1003,6 hPa 0,0 l/m 7,5 km/h (2 Bft) SW 221 0 min 0 W/m 11,6 C 11,7 C 12,9 km/h (3 Bft)
01.10.2019 02:33 12,4 C 95 % 1003,4 hPa 0,0 l/m 7,8 km/h (2 Bft) SW 229 0 min 0 W/m 11,6 C 11,5 C 16,1 km/h (3 Bft)
01.10.2019 02:36 12,4 C 95 % 1003,4 hPa 0,0 l/m 11,1 km/h (2 Bft) SW 214 0 min 0 W/m 11,6 C 9,7 C 17,7 km/h (3 Bft)
01.10.2019 02:39 12,4 C 95 % 1003,3 hPa 0,0 l/m 9,2 km/h (2 Bft) SW 227 0 min 0 W/m 11,6 C 10,7 C 17,7 km/h (3 Bft)
01.10.2019 02:42 12,4 C 95 % 1003,3 hPa 0,0 l/m 8,5 km/h (2 Bft) SW 224 0 min 0 W/m 11,6 C 11,1 C 12,9 km/h (3 Bft)
01.10.2019 02:45 12,4 C 95 % 1003,3 hPa 0,0 l/m 7,4 km/h (2 Bft) SW 224 0 min 0 W/m 11,6 C 11,7 C 12,9 km/h (3 Bft)
01.10.2019 02:48 12,4 C 95 % 1003,2 hPa 0,0 l/m 7,5 km/h (2 Bft) S-SW 212 0 min 0 W/m 11,6 C 11,7 C 14,5 km/h (3 Bft)
01.10.2019 02:51 12,4 C 95 % 1003,1 hPa 0,0 l/m 7,6 km/h (2 Bft) S-SW 209 0 min 0 W/m 11,6 C 11,6 C 12,9 km/h (3 Bft)
01.10.2019 02:54 12,3 C 95 % 1003,1 hPa 0,0 l/m 8,5 km/h (2 Bft) SW 219 0 min 0 W/m 11,5 C 11,0 C 14,5 km/h (3 Bft)
01.10.2019 02:57 12,3 C 95 % 1003,0 hPa 0,0 l/m 7,9 km/h (2 Bft) SW 227 0 min 0 W/m 11,5 C 11,3 C 14,5 km/h (3 Bft)
01.10.2019 03:00 12,3 C 95 % 1003,0 hPa 0,0 l/m 8,3 km/h (2 Bft) SW 219 0 min 0 W/m 11,5 C 11,1 C 14,5 km/h (3 Bft)
01.10.2019 03:03 12,3 C 95 % 1002,9 hPa 0,0 l/m 7,3 km/h (2 Bft) SW 217 0 min 0 W/m 11,5 C 11,7 C 11,3 km/h (2 Bft)
01.10.2019 03:06 12,3 C 95 % 1002,8 hPa 0,0 l/m 6,8 km/h (2 Bft) SW 217 0 min 0 W/m 11,5 C 12,0 C 11,3 km/h (2 Bft)
01.10.2019 03:09 12,3 C 96 % 1002,8 hPa 0,0 l/m 6,9 km/h (2 Bft) SW 217 0 min 0 W/m 11,7 C 12,0 C 9,7 km/h (2 Bft)
01.10.2019 03:12 12,3 C 96 % 1002,7 hPa 0,0 l/m 7,3 km/h (2 Bft) SW 216 0 min 0 W/m 11,7 C 11,7 C 14,5 km/h (3 Bft)
01.10.2019 03:15 12,3 C 96 % 1002,6 hPa 0,0 l/m 8,6 km/h (2 Bft) SW 224 0 min 0 W/m 11,7 C 10,9 C 14,5 km/h (3 Bft)
01.10.2019 03:18 12,3 C 96 % 1002,6 hPa 0,0 l/m 7,9 km/h (2 Bft) SW 223 0 min 0 W/m 11,7 C 11,3 C 12,9 km/h (3 Bft)
01.10.2019 03:21 12,3 C 96 % 1002,5 hPa 0,0 l/m 7,0 km/h (2 Bft) SW 222 0 min 0 W/m 11,7 C 11,9 C 11,3 km/h (2 Bft)
01.10.2019 03:24 12,3 C 96 % 1002,6 hPa 0,0 l/m 9,4 km/h (2 Bft) SW 229 0 min 0 W/m 11,7 C 10,5 C 17,7 km/h (3 Bft)
01.10.2019 03:27 12,3 C 96 % 1002,5 hPa 0,0 l/m 9,1 km/h (2 Bft) SW 227 0 min 0 W/m 11,7 C 10,6 C 14,5 km/h (3 Bft)
01.10.2019 03:30 12,4 C 96 % 1002,5 hPa 0,0 l/m 9,8 km/h (2 Bft) SW 224 0 min 0 W/m 11,8 C 10,4 C 14,5 km/h (3 Bft)
01.10.2019 03:33 12,4 C 96 % 1002,4 hPa 0,0 l/m 8,2 km/h (2 Bft) SW 223 0 min 0 W/m 11,8 C 11,3 C 12,9 km/h (3 Bft)
01.10.2019 03:36 12,4 C 96 % 1002,4 hPa 0,0 l/m 7,8 km/h (2 Bft) SW 220 0 min 0 W/m 11,8 C 11,5 C 12,9 km/h (3 Bft)
01.10.2019 03:39 12,4 C 96 % 1002,3 hPa 0,0 l/m 7,0 km/h (2 Bft) SW 220 0 min 0 W/m 11,8 C 12,0 C 11,3 km/h (2 Bft)
01.10.2019 03:42 12,4 C 96 % 1002,2 hPa 0,0 l/m 6,7 km/h (2 Bft) SW 220 0 min 0 W/m 11,8 C 12,2 C 11,3 km/h (2 Bft)
01.10.2019 03:45 12,4 C 96 % 1002,1 hPa 0,0 l/m 6,6 km/h (2 Bft) SW 219 0 min 0 W/m 11,8 C 12,3 C 11,3 km/h (2 Bft)
01.10.2019 03:48 12,4 C 96 % 1002,0 hPa 0,0 l/m 7,0 km/h (2 Bft) SW 221 0 min 0 W/m 11,8 C 12,0 C 12,9 km/h (3 Bft)
01.10.2019 03:51 12,4 C 96 % 1002,0 hPa 0,0 l/m 5,8 km/h (2 Bft) SW 221 0 min 0 W/m 11,8 C 12,4 C 8,0 km/h (2 Bft)
01.10.2019 03:54 12,4 C 96 % 1002,0 hPa 0,0 l/m 7,6 km/h (2 Bft) SW 219 0 min 0 W/m 11,8 C 11,6 C 12,9 km/h (3 Bft)
01.10.2019 03:57 12,4 C 96 % 1001,9 hPa 0,0 l/m 6,1 km/h (2 Bft) SW 219 0 min 0 W/m 11,8 C 12,4 C 11,3 km/h (2 Bft)
01.10.2019 04:00 12,4 C 96 % 1001,9 hPa 0,0 l/m 6,1 km/h (2 Bft) SW 219 0 min 0 W/m 11,8 C 12,4 C 9,7 km/h (2 Bft)
01.10.2019 04:03 12,4 C 96 % 1001,8 hPa 0,0 l/m 6,2 km/h (2 Bft) SW 219 0 min 0 W/m 11,8 C 12,4 C 11,3 km/h (2 Bft)
01.10.2019 04:06 12,4 C 96 % 1001,8 hPa 0,0 l/m 5,3 km/h (1 Bft) SW 227 0 min 0 W/m 11,8 C 12,4 C 11,3 km/h (2 Bft)
01.10.2019 04:09 12,4 C 96 % 1001,8 hPa 0,2 l/m 5,2 km/h (1 Bft) SW 227 0 min 0 W/m 11,8 C 12,4 C 8,0 km/h (2 Bft)
01.10.2019 04:12 12,3 C 96 % 1001,8 hPa 0,0 l/m 4,5 km/h (1 Bft) SW 227 0 min 0 W/m 11,7 C 12,3 C 8,0 km/h (2 Bft)
01.10.2019 04:15 12,3 C 96 % 1001,6 hPa 0,0 l/m 3,9 km/h (1 Bft) SW 227 0 min 0 W/m 11,7 C 12,3 C 6,4 km/h (2 Bft)
01.10.2019 04:18 12,3 C 96 % 1001,6 hPa 0,0 l/m 3,8 km/h (1 Bft) SW 227 0 min 0 W/m 11,7 C 12,3 C 8,0 km/h (2 Bft)
01.10.2019 04:21 12,3 C 96 % 1001,5 hPa 0,0 l/m 3,6 km/h (1 Bft) SW 227 0 min 0 W/m 11,7 C 12,3 C 6,4 km/h (2 Bft)
01.10.2019 04:24 12,3 C 96 % 1001,5 hPa 0,0 l/m 4,9 km/h (1 Bft) SW 227 0 min 0 W/m 11,7 C 12,3 C 9,7 km/h (2 Bft)
01.10.2019 04:27 12,2 C 96 % 1001,4 hPa 0,0 l/m 4,3 km/h (1 Bft) SW 227 0 min 0 W/m 11,6 C 12,2 C 8,0 km/h (2 Bft)
01.10.2019 04:30 12,2 C 96 % 1001,4 hPa 0,0 l/m 4,8 km/h (1 Bft) SW 227 0 min 0 W/m 11,6 C 12,2 C 6,4 km/h (2 Bft)
01.10.2019 04:33 12,2 C 96 % 1001,4 hPa 0,0 l/m 4,5 km/h (1 Bft) SW 227 0 min 0 W/m 11,6 C 12,2 C 8,0 km/h (2 Bft)
01.10.2019 04:36 12,2 C 96 % 1001,3 hPa 0,0 l/m 5,9 km/h (2 Bft) SW 227 0 min 0 W/m 11,6 C 12,2 C 9,7 km/h (2 Bft)
01.10.2019 04:39 12,2 C 96 % 1001,2 hPa 0,0 l/m 4,8 km/h (1 Bft) SW 227 0 min 0 W/m 11,6 C 12,2 C 9,7 km/h (2 Bft)
01.10.2019 04:42 12,2 C 96 % 1001,2 hPa 0,0 l/m 4,3 km/h (1 Bft) SW 227 0 min 0 W/m 11,6 C 12,2 C 8,0 km/h (2 Bft)
01.10.2019 04:45 12,2 C 96 % 1001,1 hPa 0,0 l/m 2,7 km/h (1 Bft) SW 227 0 min 0 W/m 11,6 C 12,2 C 4,8 km/h (1 Bft)
01.10.2019 04:48 12,2 C 96 % 1001,0 hPa 0,0 l/m 2,4 km/h (1 Bft) SW 227 0 min 0 W/m 11,6 C 12,2 C 4,8 km/h (1 Bft)
01.10.2019 04:51 12,2 C 96 % 1001,0 hPa 0,0 l/m 3,0 km/h (1 Bft) SW 227 0 min 0 W/m 11,6 C 12,2 C 4,8 km/h (1 Bft)
01.10.2019 04:54 12,1 C 96 % 1001,0 hPa 0,0 l/m 3,2 km/h (1 Bft) SW 227 0 min 0 W/m 11,5 C 12,1 C 6,4 km/h (2 Bft)
01.10.2019 04:57 12,1 C 96 % 1000,9 hPa 0,2 l/m 3,1 km/h (1 Bft) SW 227 0 min 0 W/m 11,5 C 12,1 C 4,8 km/h (1 Bft)
01.10.2019 05:00 12,1 C 96 % 1000,8 hPa 0,0 l/m 3,0 km/h (1 Bft) SW 227 0 min 0 W/m 11,5 C 12,1 C 4,8 km/h (1 Bft)
01.10.2019 05:03 12,1 C 96 % 1000,7 hPa 0,0 l/m 2,5 km/h (1 Bft) SW 227 0 min 0 W/m 11,5 C 12,1 C 4,8 km/h (1 Bft)
01.10.2019 05:06 12,1 C 96 % 1000,7 hPa 0,0 l/m 0,0 km/h (0 Bft) SW 227 0 min 0 W/m 11,5 C 12,1 C 0,0 km/h (0 Bft)
01.10.2019 05:09 12,1 C 96 % 1000,6 hPa 0,0 l/m 0,0 km/h (0 Bft) SW 227 0 min 0 W/m 11,5 C 12,1 C 0,0 km/h (0 Bft)
01.10.2019 05:12 12,1 C 96 % 1000,5 hPa 0,0 l/m 0,0 km/h (0 Bft) SW 227 0 min 0 W/m 11,5 C 12,1 C 0,0 km/h (0 Bft)
01.10.2019 05:15 12,1 C 96 % 1000,4 hPa 0,0 l/m 0,0 km/h (0 Bft) SW 227 0 min 0 W/m 11,5 C 12,1 C 0,0 km/h (0 Bft)
01.10.2019 05:18 12,1 C 96 % 1000,3 hPa 0,2 l/m 1,2 km/h (1 Bft) SW 227 0 min 0 W/m 11,5 C 12,1 C 4,8 km/h (1 Bft)
01.10.2019 05:21 12,1 C 96 % 1000,2 hPa 0,0 l/m 0,6 km/h (0 Bft) SW 227 0 min 0 W/m 11,5 C 12,1 C 3,2 km/h (1 Bft)
01.10.2019 05:24 12,1 C 96 % 1000,2 hPa 0,0 l/m 1,1 km/h (1 Bft) SW 227 0 min 0 W/m 11,5 C 12,1 C 3,2 km/h (1 Bft)
01.10.2019 05:27 12,1 C 96 % 1000,1 hPa 0,0 l/m 1,3 km/h (1 Bft) SW 227 0 min 0 W/m 11,5 C 12,1 C 3,2 km/h (1 Bft)
01.10.2019 05:30 12,0 C 96 % 1000,0 hPa 0,0 l/m 2,6 km/h (1 Bft) SW 227 0 min 0 W/m 11,4 C 12,0 C 4,8 km/h (1 Bft)
01.10.2019 05:33 12,0 C 96 % 1000,0 hPa 0,0 l/m 3,8 km/h (1 Bft) SW 227 0 min 0 W/m 11,4 C 12,0 C 6,4 km/h (2 Bft)
01.10.2019 05:36 11,9 C 96 % 999,9 hPa 0,0 l/m 2,7 km/h (1 Bft) SW 227 0 min 0 W/m 11,3 C 11,9 C 4,8 km/h (1 Bft)
01.10.2019 05:39 11,9 C 96 % 999,8 hPa 0,0 l/m 0,5 km/h (0 Bft) SW 227 0 min 0 W/m 11,3 C 11,9 C 3,2 km/h (1 Bft)
01.10.2019 05:42 11,9 C 96 % 999,6 hPa 0,0 l/m 1,0 km/h (0 Bft) SW 227 0 min 0 W/m 11,3 C 11,9 C 3,2 km/h (1 Bft)
01.10.2019 05:45 11,9 C 96 % 999,5 hPa 0,2 l/m 1,2 km/h (1 Bft) SW 227 0 min 0 W/m 11,3 C 11,9 C 3,2 km/h (1 Bft)
01.10.2019 05:48 11,9 C 96 % 999,5 hPa 0,0 l/m 1,4 km/h (1 Bft) SW 227 0 min 0 W/m 11,3 C 11,9 C 4,8 km/h (1 Bft)
01.10.2019 05:51 11,9 C 96 % 999,4 hPa 0,0 l/m 1,1 km/h (1 Bft) SW 227 0 min 0 W/m 11,3 C 11,9 C 4,8 km/h (1 Bft)
01.10.2019 05:54 11,8 C 96 % 999,4 hPa 0,0 l/m 1,9 km/h (1 Bft) SW 227 0 min 0 W/m 11,2 C 11,8 C 3,2 km/h (1 Bft)
01.10.2019 05:57 11,8 C 96 % 999,3 hPa 0,0 l/m 1,9 km/h (1 Bft) SW 227 0 min 0 W/m 11,2 C 11,8 C 4,8 km/h (1 Bft)
01.10.2019 06:00 11,8 C 96 % 999,3 hPa 0,0 l/m 2,3 km/h (1 Bft) SW 227 0 min 0 W/m 11,2 C 11,8 C 4,8 km/h (1 Bft)
01.10.2019 06:03 11,8 C 96 % 999,3 hPa 0,0 l/m 1,1 km/h (1 Bft) SW 227 0 min 0 W/m 11,2 C 11,8 C 3,2 km/h (1 Bft)
01.10.2019 06:06 11,8 C 96 % 999,2 hPa 0,0 l/m 0,0 km/h (0 Bft) SW 227 0 min 0 W/m 11,2 C 11,8 C 0,0 km/h (0 Bft)
01.10.2019 06:09 11,8 C 96 % 999,2 hPa 0,0 l/m 2,9 km/h (1 Bft) SW 227 0 min 0 W/m 11,2 C 11,8 C 4,8 km/h (1 Bft)
01.10.2019 06:12 11,7 C 96 % 999,3 hPa 0,2 l/m 2,2 km/h (1 Bft) SW 227 0 min 0 W/m 11,1 C 11,7 C 4,8 km/h (1 Bft)
01.10.2019 06:15 11,7 C 96 % 999,3 hPa 0,0 l/m 2,1 km/h (1 Bft) SW 227 0 min 0 W/m 11,1 C 11,7 C 6,4 km/h (2 Bft)
01.10.2019 06:18 11,7 C 96 % 999,2 hPa 0,0 l/m 2,6 km/h (1 Bft) SW 227 0 min 0 W/m 11,1 C 11,7 C 6,4 km/h (2 Bft)
01.10.2019 06:21 11,7 C 96 % 999,1 hPa 0,0 l/m 1,5 km/h (1 Bft) SW 227 0 min 0 W/m 11,1 C 11,7 C 3,2 km/h (1 Bft)
01.10.2019 06:24 11,7 C 96 % 999,1 hPa 0,2 l/m 1,9 km/h (1 Bft) SW 227 0 min 0 W/m 11,1 C 11,7 C 4,8 km/h (1 Bft)
01.10.2019 06:27 11,7 C 96 % 999,1 hPa 0,0 l/m 1,4 km/h (1 Bft) SW 227 0 min 0 W/m 11,1 C 11,7 C 3,2 km/h (1 Bft)
01.10.2019 06:30 11,6 C 96 % 999,1 hPa 0,0 l/m 2,6 km/h (1 Bft) SW 227 0 min 0 W/m 11,0 C 11,6 C 4,8 km/h (1 Bft)
01.10.2019 06:33 11,6 C 96 % 999,0 hPa 0,0 l/m 2,1 km/h (1 Bft) SW 227 0 min 0 W/m 11,0 C 11,6 C 4,8 km/h (1 Bft)
01.10.2019 06:36 11,6 C 96 % 998,8 hPa 0,0 l/m 3,2 km/h (1 Bft) SW 227 0 min 0 W/m 11,0 C 11,6 C 4,8 km/h (1 Bft)
01.10.2019 06:39 11,6 C 96 % 998,8 hPa 0,2 l/m 1,8 km/h (1 Bft) SW 227 0 min 0 W/m 11,0 C 11,6 C 3,2 km/h (1 Bft)
01.10.2019 06:42 11,6 C 96 % 998,7 hPa 0,0 l/m 0,2 km/h (0 Bft) SW 227 0 min 0 W/m 11,0 C 11,6 C 4,8 km/h (1 Bft)
01.10.2019 06:45 11,6 C 96 % 998,6 hPa 0,0 l/m 3,4 km/h (1 Bft) SW 227 0 min 0 W/m 11,0 C 11,6 C 6,4 km/h (2 Bft)
01.10.2019 06:48 11,6 C 96 % 998,4 hPa 0,2 l/m 3,5 km/h (1 Bft) SW 227 0 min 0 W/m 11,0 C 11,6 C 8,0 km/h (2 Bft)
01.10.2019 06:51 11,6 C 96 % 998,3 hPa 0,0 l/m 2,9 km/h (1 Bft) SW 227 0 min 0 W/m 11,0 C 11,6 C 6,4 km/h (2 Bft)
01.10.2019 06:54 11,6 C 96 % 998,2 hPa 0,0 l/m 4,2 km/h (1 Bft) SW 226 0 min 0 W/m 11,0 C 11,6 C 8,0 km/h (2 Bft)
01.10.2019 06:57 11,6 C 96 % 998,2 hPa 0,0 l/m 3,3 km/h (1 Bft) SW 226 0 min 0 W/m 11,0 C 11,6 C 6,4 km/h (2 Bft)
01.10.2019 07:00 11,6 C 96 % 998,3 hPa 0,0 l/m 3,0 km/h (1 Bft) SW 226 0 min 0 W/m 11,0 C 11,6 C 4,8 km/h (1 Bft)
01.10.2019 07:03 11,5 C 96 % 998,3 hPa 0,0 l/m 2,7 km/h (1 Bft) SW 226 0 min 0 W/m 10,9 C 11,5 C 6,4 km/h (2 Bft)
01.10.2019 07:06 11,6 C 96 % 998,4 hPa 0,0 l/m 1,1 km/h (1 Bft) SW 226 0 min 0 W/m 11,0 C 11,6 C 3,2 km/h (1 Bft)
01.10.2019 07:09 11,6 C 96 % 998,4 hPa 0,0 l/m 2,9 km/h (1 Bft) SW 226 0 min 0 W/m 11,0 C 11,6 C 4,8 km/h (1 Bft)
01.10.2019 07:12 11,6 C 96 % 998,3 hPa 0,2 l/m 3,8 km/h (1 Bft) SW 226 0 min 0 W/m 11,0 C 11,6 C 6,4 km/h (2 Bft)
01.10.2019 07:15 11,5 C 96 % 998,2 hPa 0,0 l/m 1,9 km/h (1 Bft) SW 226 0 min 0 W/m 10,9 C 11,5 C 4,8 km/h (1 Bft)
01.10.2019 07:18 11,5 C 96 % 998,1 hPa 0,0 l/m 4,2 km/h (1 Bft) SW 222 0 min 0 W/m 10,9 C 11,5 C 8,0 km/h (2 Bft)
01.10.2019 07:21 11,5 C 96 % 998,0 hPa 0,0 l/m 4,3 km/h (1 Bft) S 181 0 min 0 W/m 10,9 C 11,5 C 8,0 km/h (2 Bft)
01.10.2019 07:24 11,5 C 96 % 998,0 hPa 0,0 l/m 2,5 km/h (1 Bft) S 178 0 min 0 W/m 10,9 C 11,5 C 6,4 km/h (2 Bft)
01.10.2019 07:27 11,4 C 96 % 998,0 hPa 0,0 l/m 1,9 km/h (1 Bft) S 178 0 min 0 W/m 10,8 C 11,4 C 8,0 km/h (2 Bft)
01.10.2019 07:30 11,4 C 96 % 998,0 hPa 0,2 l/m 3,9 km/h (1 Bft) S 176 0 min 0 W/m 10,8 C 11,4 C 8,0 km/h (2 Bft)
01.10.2019 07:33 11,4 C 96 % 998,0 hPa 0,0 l/m 2,4 km/h (1 Bft) S 176 0 min 0 W/m 10,8 C 11,4 C 4,8 km/h (1 Bft)
01.10.2019 07:36 11,3 C 96 % 998,0 hPa 0,0 l/m 3,6 km/h (1 Bft) S 175 0 min 0 W/m 10,7 C 11,3 C 9,7 km/h (2 Bft)
01.10.2019 07:39 11,3 C 96 % 998,0 hPa 0,0 l/m 2,2 km/h (1 Bft) S 175 0 min 0 W/m 10,7 C 11,3 C 4,8 km/h (1 Bft)
01.10.2019 07:42 11,3 C 96 % 997,9 hPa 0,0 l/m 1,2 km/h (1 Bft) S 175 0 min 0 W/m 10,7 C 11,3 C 4,8 km/h (1 Bft)
01.10.2019 07:45 11,3 C 96 % 997,8 hPa 0,2 l/m 4,1 km/h (1 Bft) S 175 0 min 0 W/m 10,7 C 11,3 C 6,4 km/h (2 Bft)
01.10.2019 07:48 11,3 C 96 % 997,7 hPa 0,0 l/m 4,1 km/h (1 Bft) S 174 0 min 0 W/m 10,7 C 11,3 C 8,0 km/h (2 Bft)
01.10.2019 07:51 11,3 C 96 % 997,6 hPa 0,0 l/m 5,2 km/h (1 Bft) SO 137 0 min 0 W/m 10,7 C 11,3 C 11,3 km/h (2 Bft)
01.10.2019 07:54 11,3 C 96 % 997,6 hPa 0,0 l/m 4,4 km/h (1 Bft) SO 138 0 min 0 W/m 10,7 C 11,3 C 8,0 km/h (2 Bft)
01.10.2019 07:57 11,3 C 96 % 997,6 hPa 0,0 l/m 3,9 km/h (1 Bft) SO 138 0 min 0 W/m 10,7 C 11,3 C 6,4 km/h (2 Bft)
01.10.2019 08:00 11,3 C 96 % 997,6 hPa 0,0 l/m 3,4 km/h (1 Bft) SO 138 0 min 5 W/m 10,7 C 11,3 C 6,4 km/h (2 Bft)
01.10.2019 08:03 11,3 C 96 % 997,5 hPa 0,0 l/m 2,9 km/h (1 Bft) SO 138 0 min 5 W/m 10,7 C 11,3 C 11,3 km/h (2 Bft)
01.10.2019 08:06 11,3 C 96 % 997,5 hPa 0,0 l/m 3,5 km/h (1 Bft) SO 138 0 min 5 W/m 10,7 C 11,3 C 6,4 km/h (2 Bft)
01.10.2019 08:09 11,2 C 96 % 997,4 hPa 0,0 l/m 3,6 km/h (1 Bft) SO 138 0 min 5 W/m 10,6 C 11,2 C 8,0 km/h (2 Bft)
01.10.2019 08:12 11,2 C 96 % 997,4 hPa 0,0 l/m 2,5 km/h (1 Bft) SO 138 0 min 5 W/m 10,6 C 11,2 C 4,8 km/h (1 Bft)
01.10.2019 08:15 11,2 C 96 % 997,3 hPa 0,0 l/m 1,1 km/h (1 Bft) SO 138 0 min 5 W/m 10,6 C 11,2 C 3,2 km/h (1 Bft)
01.10.2019 08:18 11,2 C 96 % 997,3 hPa 0,2 l/m 2,3 km/h (1 Bft) SO 138 0 min 5 W/m 10,6 C 11,2 C 6,4 km/h (2 Bft)
01.10.2019 08:21 11,2 C 96 % 997,3 hPa 0,0 l/m 2,2 km/h (1 Bft) SO 138 0 min 5 W/m 10,6 C 11,2 C 4,8 km/h (1 Bft)
01.10.2019 08:24 11,2 C 96 % 997,3 hPa 0,0 l/m 2,4 km/h (1 Bft) SO 138 0 min 7 W/m 10,6 C 11,2 C 6,4 km/h (2 Bft)
01.10.2019 08:27 11,2 C 96 % 997,4 hPa 0,0 l/m 2,4 km/h (1 Bft) SO 138 0 min 5 W/m 10,6 C 11,2 C 4,8 km/h (1 Bft)
01.10.2019 08:30 11,2 C 96 % 997,2 hPa 0,0 l/m 1,5 km/h (1 Bft) SO 138 0 min 9 W/m 10,6 C 11,2 C 4,8 km/h (1 Bft)
01.10.2019 08:33 11,2 C 96 % 997,1 hPa 0,0 l/m 4,1 km/h (1 Bft) SO 136 0 min 11 W/m 10,6 C 11,2 C 8,0 km/h (2 Bft)
01.10.2019 08:36 11,2 C 96 % 997,1 hPa 0,0 l/m 2,4 km/h (1 Bft) O 94 0 min 9 W/m 10,6 C 11,2 C 9,7 km/h (2 Bft)
01.10.2019 08:39 11,2 C 96 % 997,1 hPa 0,2 l/m 2,1 km/h (1 Bft) O 96 0 min 9 W/m 10,6 C 11,2 C 6,4 km/h (2 Bft)
01.10.2019 08:42 11,2 C 96 % 997,0 hPa 0,0 l/m 3,2 km/h (1 Bft) SO 129 0 min 11 W/m 10,6 C 11,2 C 8,0 km/h (2 Bft)
01.10.2019 08:45 11,2 C 96 % 997,0 hPa 0,0 l/m 2,5 km/h (1 Bft) O 86 0 min 11 W/m 10,6 C 11,2 C 9,7 km/h (2 Bft)
01.10.2019 08:48 11,2 C 96 % 997,1 hPa 0,0 l/m 0,0 km/h (0 Bft) O 86 0 min 11 W/m 10,6 C 11,2 C 0,0 km/h (0 Bft)
01.10.2019 08:51 11,2 C 96 % 997,1 hPa 0,0 l/m 0,0 km/h (0 Bft) O 86 0 min 11 W/m 10,6 C 11,2 C 0,0 km/h (0 Bft)
01.10.2019 08:54 11,2 C 96 % 997,1 hPa 0,0 l/m 0,9 km/h (0 Bft) O 86 0 min 7 W/m 10,6 C 11,2 C 4,8 km/h (1 Bft)
01.10.2019 08:57 11,2 C 96 % 997,0 hPa 0,0 l/m 0,0 km/h (0 Bft) O 86 0 min 7 W/m 10,6 C 11,2 C 0,0 km/h (0 Bft)
01.10.2019 09:00 11,2 C 96 % 996,8 hPa 0,0 l/m 2,3 km/h (1 Bft) O 79 0 min 9 W/m 10,6 C 11,2 C 11,3 km/h (2 Bft)
01.10.2019 09:03 11,2 C 96 % 996,7 hPa 0,0 l/m 2,8 km/h (1 Bft) O-NO 72 0 min 12 W/m 10,6 C 11,2 C 8,0 km/h (2 Bft)
01.10.2019 09:06 11,2 C 96 % 996,8 hPa 0,0 l/m 2,2 km/h (1 Bft) O-NO 72 0 min 16 W/m 10,6 C 11,2 C 4,8 km/h (1 Bft)
01.10.2019 09:09 11,2 C 96 % 996,7 hPa 0,0 l/m 0,0 km/h (0 Bft) O-NO 72 0 min 16 W/m 10,6 C 11,2 C 1,6 km/h (1 Bft)
01.10.2019 09:12 11,2 C 96 % 996,7 hPa 0,2 l/m 0,0 km/h (0 Bft) O-NO 72 0 min 14 W/m 10,6 C 11,2 C 0,0 km/h (0 Bft)
01.10.2019 09:15 11,2 C 96 % 996,7 hPa 0,0 l/m 1,5 km/h (1 Bft) O-NO 72 0 min 16 W/m 10,6 C 11,2 C 6,4 km/h (2 Bft)
01.10.2019 09:18 11,2 C 96 % 996,8 hPa 0,0 l/m 1,9 km/h (1 Bft) O-NO 72 0 min 16 W/m 10,6 C 11,2 C 4,8 km/h (1 Bft)
01.10.2019 09:21 11,2 C 96 % 996,7 hPa 0,0 l/m 2,3 km/h (1 Bft) O-NO 72 0 min 16 W/m 10,6 C 11,2 C 4,8 km/h (1 Bft)
01.10.2019 09:24 11,2 C 96 % 996,7 hPa 0,0 l/m 0,7 km/h (0 Bft) O-NO 72 0 min 16 W/m 10,6 C 11,2 C 3,2 km/h (1 Bft)
01.10.2019 09:27 11,2 C 96 % 996,7 hPa 0,0 l/m 0,1 km/h (0 Bft) O-NO 72 0 min 19 W/m 10,6 C 11,2 C 1,6 km/h (1 Bft)
01.10.2019 09:30 11,2 C 96 % 996,7 hPa 0,2 l/m 1,6 km/h (1 Bft) O-NO 71 0 min 21 W/m 10,6 C 11,2 C 4,8 km/h (1 Bft)
01.10.2019 09:33 11,2 C 96 % 996,6 hPa 0,0 l/m 1,4 km/h (1 Bft) O-NO 71 0 min 23 W/m 10,6 C 11,2 C 3,2 km/h (1 Bft)
01.10.2019 09:36 11,2 C 96 % 996,6 hPa 0,2 l/m 2,2 km/h (1 Bft) O-NO 72 0 min 23 W/m 10,6 C 11,2 C 4,8 km/h (1 Bft)
01.10.2019 09:39 11,3 C 96 % 996,6 hPa 0,0 l/m 0,3 km/h (0 Bft) O-NO 72 0 min 19 W/m 10,7 C 11,3 C 4,8 km/h (1 Bft)
01.10.2019 09:42 11,3 C 96 % 996,6 hPa 0,2 l/m 2,0 km/h (1 Bft) O-NO 78 0 min 23 W/m 10,7 C 11,3 C 6,4 km/h (2 Bft)
01.10.2019 09:45 11,3 C 96 % 996,5 hPa 0,0 l/m 2,9 km/h (1 Bft) O 80 0 min 19 W/m 10,7 C 11,3 C 11,3 km/h (2 Bft)
01.10.2019 09:48 11,3 C 96 % 996,5 hPa 0,0 l/m 2,1 km/h (1 Bft) O 79 0 min 26 W/m 10,7 C 11,3 C 6,4 km/h (2 Bft)
01.10.2019 09:51 11,3 C 96 % 996,4 hPa 0,0 l/m 3,1 km/h (1 Bft) O 79 0 min 18 W/m 10,7 C 11,3 C 8,0 km/h (2 Bft)
01.10.2019 09:54 11,3 C 96 % 996,3 hPa 0,2 l/m 3,4 km/h (1 Bft) N-NO 24 0 min 25 W/m 10,7 C 11,3 C 11,3 km/h (2 Bft)
01.10.2019 09:57 11,3 C 96 % 996,2 hPa 0,0 l/m 4,4 km/h (1 Bft) NO 34 0 min 26 W/m 10,7 C 11,3 C 8,0 km/h (2 Bft)
01.10.2019 10:00 11,3 C 96 % 996,2 hPa 0,0 l/m 2,0 km/h (1 Bft) O-NO 57 0 min 23 W/m 10,7 C 11,3 C 6,4 km/h (2 Bft)
01.10.2019 10:03 11,3 C 96 % 996,2 hPa 0,2 l/m 2,9 km/h (1 Bft) O-NO 61 0 min 33 W/m 10,7 C 11,3 C 12,9 km/h (3 Bft)
01.10.2019 10:06 11,3 C 96 % 996,2 hPa 0,0 l/m 1,5 km/h (1 Bft) NO 55 0 min 32 W/m 10,7 C 11,3 C 6,4 km/h (2 Bft)
01.10.2019 10:09 11,3 C 96 % 996,1 hPa 0,0 l/m 2,8 km/h (1 Bft) O-NO 57 0 min 23 W/m 10,7 C 11,3 C 6,4 km/h (2 Bft)
01.10.2019 10:12 11,4 C 96 % 996,0 hPa 0,0 l/m 4,3 km/h (1 Bft) NO 53 0 min 28 W/m 10,8 C 11,4 C 8,0 km/h (2 Bft)
01.10.2019 10:15 11,4 C 96 % 995,9 hPa 0,0 l/m 4,6 km/h (1 Bft) N-NO 30 0 min 30 W/m 10,8 C 11,4 C 12,9 km/h (3 Bft)
01.10.2019 10:18 11,4 C 96 % 996,0 hPa 0,2 l/m 3,2 km/h (1 Bft) O-NO 69 0 min 21 W/m 10,8 C 11,4 C 9,7 km/h (2 Bft)
01.10.2019 10:21 11,4 C 96 % 996,0 hPa 0,0 l/m 2,1 km/h (1 Bft) O-NO 68 0 min 25 W/m 10,8 C 11,4 C 4,8 km/h (1 Bft)
01.10.2019 10:24 11,4 C 96 % 996,1 hPa 0,0 l/m 1,9 km/h (1 Bft) NO 48 0 min 26 W/m 10,8 C 11,4 C 9,7 km/h (2 Bft)
01.10.2019 10:27 11,4 C 96 % 996,0 hPa 0,0 l/m 3,8 km/h (1 Bft) NO 50 0 min 35 W/m 10,8 C 11,4 C 9,7 km/h (2 Bft)
01.10.2019 10:30 11,4 C 96 % 996,0 hPa 0,2 l/m 3,9 km/h (1 Bft) O-NO 58 0 min 37 W/m 10,8 C 11,4 C 8,0 km/h (2 Bft)
01.10.2019 10:33 11,4 C 96 % 996,0 hPa 0,0 l/m 2,4 km/h (1 Bft) O-NO 63 0 min 37 W/m 10,8 C 11,4 C 4,8 km/h (1 Bft)
01.10.2019 10:36 11,4 C 96 % 995,8 hPa 0,0 l/m 3,3 km/h (1 Bft) NO 34 0 min 30 W/m 10,8 C 11,4 C 12,9 km/h (3 Bft)
01.10.2019 10:39 11,4 C 96 % 995,8 hPa 0,0 l/m 4,6 km/h (1 Bft) N-NO 33 0 min 42 W/m 10,8 C 11,4 C 8,0 km/h (2 Bft)
01.10.2019 10:42 11,4 C 96 % 995,8 hPa 0,2 l/m 3,9 km/h (1 Bft) O-NO 61 0 min 35 W/m 10,8 C 11,4 C 16,1 km/h (3 Bft)
01.10.2019 10:45 11,4 C 96 % 995,7 hPa 0,0 l/m 4,1 km/h (1 Bft) NO 48 0 min 40 W/m 10,8 C 11,4 C 9,7 km/h (2 Bft)
01.10.2019 10:48 11,4 C 96 % 995,8 hPa 0,0 l/m 2,4 km/h (1 Bft) NO 47 0 min 32 W/m 10,8 C 11,4 C 6,4 km/h (2 Bft)
01.10.2019 10:51 11,4 C 96 % 995,9 hPa 0,0 l/m 1,9 km/h (1 Bft) NO 40 0 min 25 W/m 10,8 C 11,4 C 6,4 km/h (2 Bft)
01.10.2019 10:54 11,4 C 96 % 996,0 hPa 0,0 l/m 2,8 km/h (1 Bft) NO 37 0 min 26 W/m 10,8 C 11,4 C 9,7 km/h (2 Bft)
01.10.2019 10:57 11,4 C 96 % 996,0 hPa 0,2 l/m 3,1 km/h (1 Bft) NO 35 0 min 30 W/m 10,8 C 11,4 C 6,4 km/h (2 Bft)
01.10.2019 11:00 11,4 C 96 % 995,9 hPa 0,0 l/m 4,5 km/h (1 Bft) N-NW 345 0 min 42 W/m 10,8 C 11,4 C 14,5 km/h (3 Bft)
01.10.2019 11:03 11,4 C 96 % 996,0 hPa 0,0 l/m 2,7 km/h (1 Bft) N-NW 341 0 min 42 W/m 10,8 C 11,4 C 12,9 km/h (3 Bft)
01.10.2019 11:06 11,5 C 96 % 996,0 hPa 0,2 l/m 2,9 km/h (1 Bft) N-NW 341 0 min 40 W/m 10,9 C 11,5 C 6,4 km/h (2 Bft)
01.10.2019 11:09 11,5 C 96 % 996,0 hPa 0,0 l/m 1,4 km/h (1 Bft) N-NW 342 0 min 49 W/m 10,9 C 11,5 C 4,8 km/h (1 Bft)
01.10.2019 11:12 11,5 C 96 % 995,8 hPa 0,2 l/m 2,2 km/h (1 Bft) N-NW 342 0 min 69 W/m 10,9 C 11,5 C 4,8 km/h (1 Bft)
01.10.2019 11:15 11,6 C 96 % 995,7 hPa 0,0 l/m 4,8 km/h (1 Bft) N 360 0 min 72 W/m 11,0 C 11,6 C 9,7 km/h (2 Bft)
01.10.2019 11:18 11,6 C 96 % 995,6 hPa 0,2 l/m 3,7 km/h (1 Bft) N 355 0 min 83 W/m 11,0 C 11,6 C 12,9 km/h (3 Bft)
01.10.2019 11:21 11,7 C 96 % 995,5 hPa 0,0 l/m 3,4 km/h (1 Bft) N 355 0 min 91 W/m 11,1 C 11,7 C 8,0 km/h (2 Bft)
01.10.2019 11:24 11,7 C 96 % 995,5 hPa 0,0 l/m 3,1 km/h (1 Bft) O 99 0 min 109 W/m 11,1 C 11,7 C 6,4 km/h (2 Bft)
01.10.2019 11:27 11,7 C 96 % 995,5 hPa 0,0 l/m 2,6 km/h (1 Bft) N-NO 26 0 min 74 W/m 11,1 C 11,7 C 6,4 km/h (2 Bft)
01.10.2019 11:30 11,8 C 96 % 995,5 hPa 0,0 l/m 3,1 km/h (1 Bft) N-NW 338 0 min 76 W/m 11,2 C 11,8 C 6,4 km/h (2 Bft)
01.10.2019 11:33 11,8 C 96 % 995,5 hPa 0,0 l/m 4,1 km/h (1 Bft) N 360 0 min 86 W/m 11,2 C 11,8 C 9,7 km/h (2 Bft)
01.10.2019 11:36 11,8 C 96 % 995,4 hPa 0,0 l/m 3,0 km/h (1 Bft) N 355 0 min 65 W/m 11,2 C 11,8 C 8,0 km/h (2 Bft)
01.10.2019 11:39 11,8 C 96 % 995,4 hPa 0,0 l/m 5,3 km/h (1 Bft) NO 55 0 min 63 W/m 11,2 C 11,8 C 9,7 km/h (2 Bft)
01.10.2019 11:42 11,8 C 96 % 995,4 hPa 0,0 l/m 4,8 km/h (1 Bft) NO 55 0 min 42 W/m 11,2 C 11,8 C 4,8 km/h (1 Bft)
01.10.2019 11:45 11,8 C 96 % 995,4 hPa 0,0 l/m 4,9 km/h (1 Bft) SO 136 0 min 42 W/m 11,2 C 11,8 C 11,3 km/h (2 Bft)
01.10.2019 11:48 11,8 C 96 % 995,2 hPa 0,0 l/m 3,7 km/h (1 Bft) N-NO 24 0 min 70 W/m 11,2 C 11,8 C 8,0 km/h (2 Bft)
01.10.2019 11:51 11,8 C 96 % 995,2 hPa 0,0 l/m 6,4 km/h (2 Bft) NO 38 0 min 84 W/m 11,2 C 11,8 C 14,5 km/h (3 Bft)
01.10.2019 11:54 11,7 C 96 % 995,2 hPa 0,0 l/m 4,6 km/h (1 Bft) N 5 0 min 69 W/m 11,1 C 11,7 C 8,0 km/h (2 Bft)
01.10.2019 11:57 11,7 C 96 % 995,2 hPa 0,0 l/m 5,3 km/h (1 Bft) N-NO 15 0 min 63 W/m 11,1 C 11,7 C 14,5 km/h (3 Bft)
01.10.2019 12:00 11,7 C 96 % 995,3 hPa 0,0 l/m 6,2 km/h (2 Bft) O 84 0 min 32 W/m 11,1 C 11,7 C 12,9 km/h (3 Bft)
01.10.2019 12:03 11,7 C 96 % 995,4 hPa 0,0 l/m 6,3 km/h (2 Bft) N-NW 346 0 min 49 W/m 11,1 C 11,7 C 16,1 km/h (3 Bft)
01.10.2019 12:06 11,6 C 96 % 995,5 hPa 0,0 l/m 4,9 km/h (1 Bft) NW 315 0 min 56 W/m 11,0 C 11,6 C 9,7 km/h (2 Bft)
01.10.2019 12:09 11,6 C 96 % 995,7 hPa 0,0 l/m 7,4 km/h (2 Bft) NW 323 0 min 62 W/m 11,0 C 10,9 C 16,1 km/h (3 Bft)
01.10.2019 12:12 11,6 C 96 % 995,7 hPa 0,0 l/m 6,4 km/h (2 Bft) W-NW 297 0 min 58 W/m 11,0 C 11,6 C 12,9 km/h (3 Bft)
01.10.2019 12:15 11,5 C 96 % 995,7 hPa 0,2 l/m 6,1 km/h (2 Bft) N-NO 31 0 min 60 W/m 10,9 C 11,5 C 20,9 km/h (4 Bft)
01.10.2019 12:18 11,4 C 96 % 995,7 hPa 0,0 l/m 6,0 km/h (2 Bft) N 355 0 min 62 W/m 10,8 C 11,4 C 20,9 km/h (4 Bft)
01.10.2019 12:21 11,4 C 96 % 995,8 hPa 0,0 l/m 4,4 km/h (1 Bft) N 360 0 min 42 W/m 10,8 C 11,4 C 12,9 km/h (3 Bft)
01.10.2019 12:24 11,4 C 96 % 995,8 hPa 0,0 l/m 5,5 km/h (2 Bft) O 101 0 min 63 W/m 10,8 C 11,4 C 12,9 km/h (3 Bft)
01.10.2019 12:27 11,4 C 96 % 995,7 hPa 0,2 l/m 4,8 km/h (1 Bft) NW 322 0 min 83 W/m 10,8 C 11,4 C 12,9 km/h (3 Bft)
01.10.2019 12:30 11,4 C 96 % 995,4 hPa 0,0 l/m 7,0 km/h (2 Bft) NW 319 0 min 174 W/m 10,8 C 11,0 C 17,7 km/h (3 Bft)
01.10.2019 12:33 11,4 C 96 % 995,4 hPa 0,0 l/m 5,3 km/h (1 Bft) N-NW 346 0 min 153 W/m 10,8 C 11,4 C 16,1 km/h (3 Bft)
01.10.2019 12:36 11,5 C 96 % 995,5 hPa 0,0 l/m 5,1 km/h (1 Bft) N-NW 331 0 min 107 W/m 10,9 C 11,5 C 11,3 km/h (2 Bft)
01.10.2019 12:39 11,6 C 96 % 995,6 hPa 0,2 l/m 5,4 km/h (2 Bft) N-NW 333 0 min 72 W/m 11,0 C 11,6 C 16,1 km/h (3 Bft)
01.10.2019 12:42 11,6 C 96 % 995,7 hPa 0,0 l/m 5,7 km/h (2 Bft) N-NW 329 0 min 53 W/m 11,0 C 11,6 C 12,9 km/h (3 Bft)
01.10.2019 12:45 11,6 C 96 % 995,8 hPa 0,0 l/m 5,4 km/h (2 Bft) N-NO 24 0 min 69 W/m 11,0 C 11,6 C 12,9 km/h (3 Bft)
01.10.2019 12:48 11,6 C 96 % 995,6 hPa 0,0 l/m 6,2 km/h (2 Bft) N-NO 33 0 min 95 W/m 11,0 C 11,6 C 12,9 km/h (3 Bft)
01.10.2019 12:51 11,6 C 96 % 995,5 hPa 0,0 l/m 7,4 km/h (2 Bft) NW 309 0 min 86 W/m 11,0 C 10,9 C 16,1 km/h (3 Bft)
01.10.2019 12:54 11,6 C 96 % 995,5 hPa 0,0 l/m 5,5 km/h (2 Bft) N-NW 348 0 min 74 W/m 11,0 C 11,6 C 12,9 km/h (3 Bft)
01.10.2019 12:57 11,6 C 96 % 995,4 hPa 0,0 l/m 7,8 km/h (2 Bft) N 360 0 min 60 W/m 11,0 C 10,7 C 14,5 km/h (3 Bft)
01.10.2019 13:00 11,5 C 96 % 995,5 hPa 0,0 l/m 6,5 km/h (2 Bft) N 5 0 min 111 W/m 10,9 C 11,5 C 8,0 km/h (2 Bft)
01.10.2019 13:03 11,4 C 96 % 995,6 hPa 0,0 l/m 6,4 km/h (2 Bft) N 5 0 min 104 W/m 10,8 C 11,4 C 6,4 km/h (2 Bft)
01.10.2019 13:06 11,4 C 96 % 995,6 hPa 0,0 l/m 6,4 km/h (2 Bft) N 5 0 min 67 W/m 10,8 C 11,4 C 6,4 km/h (2 Bft)
01.10.2019 13:09 11,4 C 96 % 995,5 hPa 0,0 l/m 6,4 km/h (2 Bft) N 0 0 min 81 W/m 10,8 C 11,4 C 6,4 km/h (2 Bft)
01.10.2019 13:12 11,4 C 96 % 995,5 hPa 0,0 l/m 6,4 km/h (2 Bft) N 0 0 min 74 W/m 10,8 C 11,4 C 6,4 km/h (2 Bft)
01.10.2019 13:15 11,4 C 96 % 995,5 hPa 0,0 l/m 6,4 km/h (2 Bft) N 0 0 min 98 W/m 10,8 C 11,4 C 6,4 km/h (2 Bft)
01.10.2019 13:18 11,4 C 96 % 995,5 hPa 0,0 l/m 6,4 km/h (2 Bft) N 0 0 min 97 W/m 10,8 C 11,4 C 6,4 km/h (2 Bft)
01.10.2019 13:21 11,3 C 96 % 995,5 hPa 0,0 l/m 6,4 km/h (2 Bft) N 0 0 min 79 W/m 10,7 C 11,3 C 6,4 km/h (2 Bft)
01.10.2019 13:24 11,3 C 96 % 995,5 hPa 0,0 l/m 6,4 km/h (2 Bft) N 0 0 min 83 W/m 10,7 C 11,3 C 6,4 km/h (2 Bft)
01.10.2019 13:27 11,3 C 96 % 995,5 hPa 0,0 l/m 6,4 km/h (2 Bft) N 0 0 min 60 W/m 10,7 C 11,3 C 6,4 km/h (2 Bft)
01.10.2019 13:30 11,3 C 96 % 995,5 hPa 0,0 l/m 6,4 km/h (2 Bft) N 0 0 min 60 W/m 10,7 C 11,3 C 6,4 km/h (2 Bft)
01.10.2019 13:33 11,3 C 96 % 995,5 hPa 0,0 l/m 6,4 km/h (2 Bft) N 0 0 min 51 W/m 10,7 C 11,3 C 6,4 km/h (2 Bft)
01.10.2019 13:36 11,2 C 96 % 995,6 hPa 0,0 l/m 6,4 km/h (2 Bft) N 0 0 min 46 W/m 10,6 C 11,2 C 6,4 km/h (2 Bft)
01.10.2019 13:39 11,2 C 96 % 995,7 hPa 0,0 l/m 6,4 km/h (2 Bft) N 0 0 min 54 W/m 10,6 C 11,2 C 6,4 km/h (2 Bft)
01.10.2019 13:42 11,2 C 96 % 995,6 hPa 0,0 l/m 6,4 km/h (2 Bft) N 0 0 min 74 W/m 10,6 C 11,2 C 6,4 km/h (2 Bft)
01.10.2019 13:45 11,2 C 96 % 995,6 hPa 0,0 l/m 6,4 km/h (2 Bft) N 0 0 min 72 W/m 10,6 C 11,2 C 6,4 km/h (2 Bft)
01.10.2019 13:48 11,2 C 96 % 995,7 hPa 0,0 l/m 6,4 km/h (2 Bft) N 0 0 min 60 W/m 10,6 C 11,2 C 6,4 km/h (2 Bft)
01.10.2019 13:51 11,1 C 96 % 995,7 hPa 0,0 l/m 6,4 km/h (2 Bft) N 0 0 min 32 W/m 10,5 C 11,1 C 6,4 km/h (2 Bft)
01.10.2019 13:54 11,1 C 96 % 995,9 hPa 0,0 l/m 6,4 km/h (2 Bft) N 0 0 min 32 W/m 10,5 C 11,1 C 6,4 km/h (2 Bft)
01.10.2019 13:57 11,1 C 96 % 995,9 hPa 0,0 l/m 6,4 km/h (2 Bft) N 0 0 min 47 W/m 10,5 C 11,1 C 6,4 km/h (2 Bft)
01.10.2019 14:00 11,1 C 96 % 996,0 hPa 0,0 l/m 10,1 km/h (2 Bft) N-NW 344 0 min 37 W/m 10,5 C 8,8 C 16,1 km/h (3 Bft)
01.10.2019 14:03 11,1 C 96 % 995,9 hPa 0,0 l/m 5,6 km/h (2 Bft) N-NW 343 0 min 44 W/m 10,5 C 11,1 C 14,5 km/h (3 Bft)
01.10.2019 14:06 11,1 C 96 % 996,0 hPa 0,0 l/m 5,7 km/h (2 Bft) NW 313 0 min 49 W/m 10,5 C 11,1 C 20,9 km/h (4 Bft)
01.10.2019 14:09 11,0 C 96 % 996,0 hPa 0,0 l/m 6,3 km/h (2 Bft) N-NO 16 0 min 49 W/m 10,4 C 11,0 C 12,9 km/h (3 Bft)
01.10.2019 14:12 11,0 C 96 % 996,0 hPa 0,0 l/m 4,4 km/h (1 Bft) N-NW 348 0 min 49 W/m 10,4 C 11,0 C 17,7 km/h (3 Bft)
01.10.2019 14:15 11,0 C 96 % 996,0 hPa 0,0 l/m 5,9 km/h (2 Bft) N-NW 346 0 min 42 W/m 10,4 C 11,0 C 16,1 km/h (3 Bft)
01.10.2019 14:18 10,9 C 96 % 996,0 hPa 0,0 l/m 7,3 km/h (2 Bft) N 5 0 min 49 W/m 10,3 C 10,3 C 19,3 km/h (3 Bft)
01.10.2019 14:21 10,9 C 96 % 996,0 hPa 0,0 l/m 6,6 km/h (2 Bft) W-NW 285 0 min 53 W/m 10,3 C 10,8 C 19,3 km/h (3 Bft)
01.10.2019 14:24 10,9 C 96 % 996,1 hPa 0,0 l/m 6,5 km/h (2 Bft) N 5 0 min 44 W/m 10,3 C 10,9 C 16,1 km/h (3 Bft)
01.10.2019 14:27 10,8 C 96 % 996,0 hPa 0,0 l/m 4,5 km/h (1 Bft) N-NW 340 0 min 58 W/m 10,2 C 10,8 C 16,1 km/h (3 Bft)
01.10.2019 14:30 10,8 C 96 % 996,0 hPa 0,0 l/m 5,8 km/h (2 Bft) NW 323 0 min 46 W/m 10,2 C 10,8 C 14,5 km/h (3 Bft)
01.10.2019 14:33 10,8 C 96 % 996,1 hPa 0,0 l/m 5,9 km/h (2 Bft) NW 318 0 min 44 W/m 10,2 C 10,8 C 12,9 km/h (3 Bft)
01.10.2019 14:36 10,8 C 96 % 996,2 hPa 0,0 l/m 4,9 km/h (1 Bft) N-NO 33 0 min 39 W/m 10,2 C 10,8 C 20,9 km/h (4 Bft)
01.10.2019 14:39 10,8 C 96 % 996,2 hPa 0,0 l/m 7,5 km/h (2 Bft) N-NW 334 0 min 44 W/m 10,2 C 10,0 C 16,1 km/h (3 Bft)
01.10.2019 14:42 10,8 C 96 % 996,2 hPa 0,0 l/m 5,3 km/h (1 Bft) NO 40 0 min 47 W/m 10,2 C 10,8 C 12,9 km/h (3 Bft)
01.10.2019 14:45 10,7 C 96 % 996,2 hPa 0,0 l/m 5,0 km/h (1 Bft) N-NW 337 0 min 62 W/m 10,1 C 10,7 C 8,0 km/h (2 Bft)
01.10.2019 14:48 10,7 C 96 % 996,2 hPa 0,0 l/m 3,3 km/h (1 Bft) N 5 0 min 53 W/m 10,1 C 10,7 C 8,0 km/h (2 Bft)
01.10.2019 14:51 10,7 C 96 % 996,3 hPa 0,0 l/m 4,4 km/h (1 Bft) N 355 0 min 60 W/m 10,1 C 10,7 C 12,9 km/h (3 Bft)
01.10.2019 14:54 10,7 C 96 % 996,3 hPa 0,0 l/m 6,6 km/h (2 Bft) NW 321 0 min 39 W/m 10,1 C 10,6 C 16,1 km/h (3 Bft)
01.10.2019 14:57 10,7 C 96 % 996,4 hPa 0,0 l/m 8,4 km/h (2 Bft) NO 40 0 min 62 W/m 10,1 C 9,3 C 20,9 km/h (4 Bft)
01.10.2019 15:00 10,7 C 96 % 996,5 hPa 0,0 l/m 4,5 km/h (1 Bft) N-NO 22 0 min 83 W/m 10,1 C 10,7 C 12,9 km/h (3 Bft)
01.10.2019 15:03 10,6 C 96 % 996,4 hPa 0,0 l/m 3,5 km/h (1 Bft) NO 50 0 min 86 W/m 10,0 C 10,6 C 11,3 km/h (2 Bft)
01.10.2019 15:06 10,6 C 96 % 996,4 hPa 0,0 l/m 5,9 km/h (2 Bft) N-NW 336 0 min 79 W/m 10,0 C 10,6 C 16,1 km/h (3 Bft)
01.10.2019 15:09 10,6 C 96 % 996,4 hPa 0,0 l/m 6,1 km/h (2 Bft) N-NW 343 0 min 70 W/m 10,0 C 10,6 C 12,9 km/h (3 Bft)
01.10.2019 15:12 10,6 C 96 % 996,4 hPa 0,0 l/m 6,0 km/h (2 Bft) N-NO 21 0 min 74 W/m 10,0 C 10,6 C 12,9 km/h (3 Bft)
01.10.2019 15:15 10,6 C 96 % 996,5 hPa 0,0 l/m 6,7 km/h (2 Bft) N-NW 328 0 min 70 W/m 10,0 C 10,4 C 14,5 km/h (3 Bft)
01.10.2019 15:18 10,6 C 96 % 996,6 hPa 0,0 l/m 7,2 km/h (2 Bft) N 10 0 min 65 W/m 10,0 C 10,0 C 14,5 km/h (3 Bft)
01.10.2019 15:21 10,6 C 96 % 996,6 hPa 0,0 l/m 6,0 km/h (2 Bft) N-NW 333 0 min 63 W/m 10,0 C 10,6 C 14,5 km/h (3 Bft)
01.10.2019 15:24 10,6 C 96 % 996,6 hPa 0,0 l/m 5,8 km/h (2 Bft) NO 49 0 min 63 W/m 10,0 C 10,6 C 12,9 km/h (3 Bft)
01.10.2019 15:27 10,6 C 96 % 996,7 hPa 0,0 l/m 4,4 km/h (1 Bft) N-NW 333 0 min 51 W/m 10,0 C 10,6 C 8,0 km/h (2 Bft)
01.10.2019 15:30 10,6 C 96 % 996,6 hPa 0,0 l/m 4,9 km/h (1 Bft) N-NW 342 0 min 62 W/m 10,0 C 10,6 C 14,5 km/h (3 Bft)
01.10.2019 15:33 10,6 C 96 % 996,6 hPa 0,0 l/m 5,3 km/h (1 Bft) NW 312 0 min 42 W/m 10,0 C 10,6 C 14,5 km/h (3 Bft)
01.10.2019 15:36 10,5 C 96 % 996,7 hPa 0,0 l/m 6,5 km/h (2 Bft) NW 317 0 min 42 W/m 9,9 C 10,5 C 12,9 km/h (3 Bft)
01.10.2019 15:39 10,4 C 96 % 996,7 hPa 0,0 l/m 6,1 km/h (2 Bft) W-NW 298 0 min 37 W/m 9,8 C 10,4 C 14,5 km/h (3 Bft)
01.10.2019 15:42 10,4 C 96 % 996,8 hPa 0,0 l/m 4,5 km/h (1 Bft) NW 321 0 min 39 W/m 9,8 C 10,4 C 12,9 km/h (3 Bft)
01.10.2019 15:45 10,4 C 96 % 996,8 hPa 0,0 l/m 6,1 km/h (2 Bft) N 355 0 min 51 W/m 9,8 C 10,4 C 16,1 km/h (3 Bft)
01.10.2019 15:48 10,4 C 96 % 996,8 hPa 0,0 l/m 4,9 km/h (1 Bft) NO 40 0 min 40 W/m 9,8 C 10,4 C 11,3 km/h (2 Bft)
01.10.2019 15:51 10,4 C 96 % 996,8 hPa 0,0 l/m 5,1 km/h (1 Bft) W-NW 301 0 min 51 W/m 9,8 C 10,4 C 14,5 km/h (3 Bft)
01.10.2019 15:54 10,4 C 96 % 996,8 hPa 0,0 l/m 5,0 km/h (1 Bft) N 349 0 min 69 W/m 9,8 C 10,4 C 14,5 km/h (3 Bft)
01.10.2019 15:57 10,4 C 96 % 996,8 hPa 0,0 l/m 5,5 km/h (2 Bft) N 5 0 min 77 W/m 9,8 C 10,4 C 14,5 km/h (3 Bft)
01.10.2019 16:00 10,4 C 96 % 996,9 hPa 0,0 l/m 4,1 km/h (1 Bft) NW 323 0 min 65 W/m 9,8 C 10,4 C 11,3 km/h (2 Bft)
01.10.2019 16:03 10,4 C 96 % 996,9 hPa 0,0 l/m 2,7 km/h (1 Bft) NW 323 0 min 72 W/m 9,8 C 10,4 C 6,4 km/h (2 Bft)
01.10.2019 16:06 10,5 C 96 % 996,9 hPa 0,0 l/m 3,8 km/h (1 Bft) W-NW 300 0 min 56 W/m 9,9 C 10,5 C 8,0 km/h (2 Bft)
01.10.2019 16:09 10,5 C 96 % 997,0 hPa 0,0 l/m 3,8 km/h (1 Bft) W-NW 298 0 min 54 W/m 9,9 C 10,5 C 8,0 km/h (2 Bft)
01.10.2019 16:12 10,6 C 96 % 997,1 hPa 0,0 l/m 1,7 km/h (1 Bft) W-NW 298 0 min 60 W/m 10,0 C 10,6 C 4,8 km/h (1 Bft)
01.10.2019 16:15 10,6 C 96 % 997,1 hPa 0,0 l/m 4,1 km/h (1 Bft) W-NW 300 0 min 54 W/m 10,0 C 10,6 C 8,0 km/h (2 Bft)
01.10.2019 16:18 10,6 C 96 % 997,1 hPa 0,0 l/m 3,7 km/h (1 Bft) N-NO 21 0 min 49 W/m 10,0 C 10,6 C 11,3 km/h (2 Bft)
01.10.2019 16:21 10,7 C 96 % 997,2 hPa 0,0 l/m 6,4 km/h (2 Bft) N-NW 340 0 min 40 W/m 10,1 C 10,7 C 16,1 km/h (3 Bft)
01.10.2019 16:24 10,7 C 96 % 997,2 hPa 0,0 l/m 4,0 km/h (1 Bft) N-NW 347 0 min 28 W/m 10,1 C 10,7 C 9,7 km/h (2 Bft)
01.10.2019 16:27 10,6 C 96 % 997,2 hPa 0,0 l/m 6,3 km/h (2 Bft) N-NW 338 0 min 46 W/m 10,0 C 10,6 C 16,1 km/h (3 Bft)
01.10.2019 16:30 10,6 C 96 % 997,2 hPa 0,0 l/m 8,4 km/h (2 Bft) NW 321 0 min 72 W/m 10,0 C 9,2 C 17,7 km/h (3 Bft)
01.10.2019 16:33 10,6 C 96 % 997,2 hPa 0,0 l/m 4,8 km/h (1 Bft) O-NO 62 0 min 100 W/m 10,0 C 10,6 C 12,9 km/h (3 Bft)
01.10.2019 16:36 10,6 C 96 % 997,1 hPa 0,0 l/m 7,4 km/h (2 Bft) N-NO 26 0 min 113 W/m 10,0 C 9,9 C 17,7 km/h (3 Bft)
01.10.2019 16:39 10,5 C 96 % 997,3 hPa 0,0 l/m 8,2 km/h (2 Bft) N-NW 330 0 min 67 W/m 9,9 C 9,2 C 16,1 km/h (3 Bft)
01.10.2019 16:42 10,4 C 96 % 997,3 hPa 0,0 l/m 3,9 km/h (1 Bft) N-NW 348 0 min 47 W/m 9,8 C 10,4 C 9,7 km/h (2 Bft)
01.10.2019 16:45 10,4 C 96 % 997,3 hPa 0,0 l/m 3,7 km/h (1 Bft) N-NO 23 0 min 51 W/m 9,8 C 10,4 C 8,0 km/h (2 Bft)
01.10.2019 16:48 10,4 C 96 % 997,3 hPa 0,0 l/m 4,6 km/h (1 Bft) NW 317 0 min 47 W/m 9,8 C 10,4 C 9,7 km/h (2 Bft)
01.10.2019 16:51 10,4 C 96 % 997,4 hPa 0,0 l/m 5,1 km/h (1 Bft) NW 317 0 min 47 W/m 9,8 C 10,4 C 8,0 km/h (2 Bft)
01.10.2019 16:54 10,4 C 96 % 997,4 hPa 0,0 l/m 7,1 km/h (2 Bft) N 355 0 min 39 W/m 9,8 C 9,9 C 16,1 km/h (3 Bft)
01.10.2019 16:57 10,4 C 96 % 997,5 hPa 0,0 l/m 6,3 km/h (2 Bft) N-NO 28 0 min 39 W/m 9,8 C 10,4 C 16,1 km/h (3 Bft)
01.10.2019 17:00 10,3 C 96 % 997,4 hPa 0,0 l/m 4,8 km/h (1 Bft) N-NO 12 0 min 42 W/m 9,7 C 10,3 C 11,3 km/h (2 Bft)
01.10.2019 17:03 10,4 C 96 % 997,3 hPa 0,0 l/m 6,0 km/h (2 Bft) NW 325 0 min 47 W/m 9,8 C 10,4 C 19,3 km/h (3 Bft)
01.10.2019 17:06 10,4 C 96 % 997,4 hPa 0,0 l/m 5,7 km/h (2 Bft) N-NW 327 0 min 40 W/m 9,8 C 10,4 C 12,9 km/h (3 Bft)
01.10.2019 17:09 10,4 C 96 % 997,4 hPa 0,0 l/m 6,1 km/h (2 Bft) N 349 0 min 40 W/m 9,8 C 10,4 C 16,1 km/h (3 Bft)
01.10.2019 17:12 10,4 C 96 % 997,3 hPa 0,0 l/m 7,1 km/h (2 Bft) N 355 0 min 56 W/m 9,8 C 9,9 C 14,5 km/h (3 Bft)
01.10.2019 17:15 10,4 C 96 % 997,4 hPa 0,0 l/m 5,0 km/h (1 Bft) N-NW 330 0 min 35 W/m 9,8 C 10,4 C 8,0 km/h (2 Bft)
01.10.2019 17:18 10,4 C 96 % 997,4 hPa 0,0 l/m 5,4 km/h (2 Bft) N-NW 338 0 min 47 W/m 9,8 C 10,4 C 16,1 km/h (3 Bft)
01.10.2019 17:21 10,5 C 96 % 997,5 hPa 0,0 l/m 5,7 km/h (2 Bft) N-NO 15 0 min 47 W/m 9,9 C 10,5 C 17,7 km/h (3 Bft)
01.10.2019 17:24 10,5 C 96 % 997,6 hPa 0,0 l/m 6,0 km/h (2 Bft) W-NW 292 0 min 47 W/m 9,9 C 10,5 C 16,1 km/h (3 Bft)
01.10.2019 17:27 10,5 C 96 % 997,6 hPa 0,0 l/m 7,6 km/h (2 Bft) N-NW 332 0 min 42 W/m 9,9 C 9,6 C 17,7 km/h (3 Bft)
01.10.2019 17:30 10,5 C 96 % 997,7 hPa 0,0 l/m 4,6 km/h (1 Bft) N-NW 346 0 min 40 W/m 9,9 C 10,5 C 16,1 km/h (3 Bft)
01.10.2019 17:33 10,6 C 96 % 997,6 hPa 0,0 l/m 3,7 km/h (1 Bft) N-NO 18 0 min 37 W/m 10,0 C 10,6 C 8,0 km/h (2 Bft)
01.10.2019 17:36 10,5 C 96 % 997,6 hPa 0,0 l/m 6,9 km/h (2 Bft) N 5 0 min 32 W/m 9,9 C 10,2 C 14,5 km/h (3 Bft)
01.10.2019 17:39 10,5 C 96 % 997,6 hPa 0,0 l/m 4,9 km/h (1 Bft) N 355 0 min 32 W/m 9,9 C 10,5 C 8,0 km/h (2 Bft)
01.10.2019 17:42 10,5 C 96 % 997,7 hPa 0,0 l/m 4,1 km/h (1 Bft) N 355 0 min 33 W/m 9,9 C 10,5 C 8,0 km/h (2 Bft)
01.10.2019 17:45 10,5 C 96 % 997,6 hPa 0,0 l/m 4,8 km/h (1 Bft) N-NW 342 0 min 33 W/m 9,9 C 10,5 C 9,7 km/h (2 Bft)
01.10.2019 17:48 10,4 C 96 % 997,6 hPa 0,0 l/m 3,8 km/h (1 Bft) N-NW 343 0 min 35 W/m 9,8 C 10,4 C 6,4 km/h (2 Bft)
01.10.2019 17:51 10,4 C 96 % 997,7 hPa 0,0 l/m 3,6 km/h (1 Bft) N-NW 344 0 min 32 W/m 9,8 C 10,4 C 8,0 km/h (2 Bft)
01.10.2019 17:54 10,4 C 96 % 997,7 hPa 0,0 l/m 3,3 km/h (1 Bft) N-NO 19 0 min 23 W/m 9,8 C 10,4 C 12,9 km/h (3 Bft)
01.10.2019 17:57 10,4 C 96 % 997,7 hPa 0,0 l/m 3,5 km/h (1 Bft) N 355 0 min 30 W/m 9,8 C 10,4 C 9,7 km/h (2 Bft)
01.10.2019 18:00 10,4 C 96 % 997,8 hPa 0,0 l/m 3,8 km/h (1 Bft) N 360 0 min 25 W/m 9,8 C 10,4 C 8,0 km/h (2 Bft)
01.10.2019 18:03 10,4 C 96 % 997,9 hPa 0,0 l/m 4,0 km/h (1 Bft) N 360 0 min 16 W/m 9,8 C 10,4 C 8,0 km/h (2 Bft)
01.10.2019 18:06 10,4 C 96 % 997,9 hPa 0,0 l/m 3,2 km/h (1 Bft) N 360 0 min 16 W/m 9,8 C 10,4 C 8,0 km/h (2 Bft)
01.10.2019 18:09 10,4 C 96 % 997,9 hPa 0,0 l/m 3,1 km/h (1 Bft) N 360 0 min 18 W/m 9,8 C 10,4 C 9,7 km/h (2 Bft)
01.10.2019 18:12 10,3 C 95 % 998,0 hPa 0,0 l/m 4,5 km/h (1 Bft) N 355 0 min 16 W/m 9,5 C 10,3 C 12,9 km/h (3 Bft)
01.10.2019 18:15 10,3 C 95 % 998,1 hPa 0,0 l/m 3,8 km/h (1 Bft) N 355 0 min 11 W/m 9,5 C 10,3 C 6,4 km/h (2 Bft)
01.10.2019 18:18 10,3 C 95 % 998,1 hPa 0,0 l/m 2,7 km/h (1 Bft) N 355 0 min 16 W/m 9,5 C 10,3 C 4,8 km/h (1 Bft)
01.10.2019 18:21 10,3 C 96 % 998,1 hPa 0,0 l/m 2,4 km/h (1 Bft) N 355 0 min 11 W/m 9,7 C 10,3 C 4,8 km/h (1 Bft)
01.10.2019 18:24 10,3 C 96 % 998,2 hPa 0,0 l/m 5,6 km/h (2 Bft) N-NW 345 0 min 7 W/m 9,7 C 10,3 C 14,5 km/h (3 Bft)
01.10.2019 18:27 10,2 C 95 % 998,2 hPa 0,0 l/m 3,6 km/h (1 Bft) N-NW 345 0 min 9 W/m 9,4 C 10,2 C 6,4 km/h (2 Bft)
01.10.2019 18:30 10,2 C 95 % 998,3 hPa 0,0 l/m 4,5 km/h (1 Bft) N-NW 348 0 min 9 W/m 9,4 C 10,2 C 12,9 km/h (3 Bft)
01.10.2019 18:33 10,2 C 95 % 998,3 hPa 0,0 l/m 6,5 km/h (2 Bft) N-NW 338 0 min 7 W/m 9,4 C 10,2 C 14,5 km/h (3 Bft)
01.10.2019 18:36 10,1 C 95 % 998,3 hPa 0,0 l/m 5,6 km/h (2 Bft) N-NW 339 0 min 7 W/m 9,3 C 10,1 C 9,7 km/h (2 Bft)
01.10.2019 18:39 10,0 C 95 % 998,4 hPa 0,0 l/m 5,0 km/h (1 Bft) N 351 0 min 7 W/m 9,2 C 10,0 C 12,9 km/h (3 Bft)
01.10.2019 18:42 10,0 C 95 % 998,4 hPa 0,0 l/m 4,5 km/h (1 Bft) N-NW 340 0 min 5 W/m 9,2 C 10,0 C 12,9 km/h (3 Bft)
01.10.2019 18:45 9,9 C 95 % 998,4 hPa 0,0 l/m 5,2 km/h (1 Bft) N-NW 344 0 min 5 W/m 9,1 C 9,9 C 12,9 km/h (3 Bft)
01.10.2019 18:48 9,9 C 95 % 998,4 hPa 0,0 l/m 3,9 km/h (1 Bft) N-NW 344 0 min 5 W/m 9,1 C 9,9 C 9,7 km/h (2 Bft)
01.10.2019 18:51 9,9 C 95 % 998,3 hPa 0,0 l/m 3,5 km/h (1 Bft) N-NW 345 0 min 5 W/m 9,1 C 9,9 C 8,0 km/h (2 Bft)
01.10.2019 18:54 9,8 C 95 % 998,3 hPa 0,0 l/m 3,7 km/h (1 Bft) N-NW 345 0 min 0 W/m 9,0 C 9,8 C 9,7 km/h (2 Bft)
01.10.2019 18:57 9,8 C 95 % 998,2 hPa 0,0 l/m 0,9 km/h (0 Bft) N-NW 345 0 min 0 W/m 9,0 C 9,8 C 3,2 km/h (1 Bft)
01.10.2019 19:00 9,8 C 95 % 998,3 hPa 0,0 l/m 1,8 km/h (1 Bft) N-NW 345 0 min 0 W/m 9,0 C 9,8 C 4,8 km/h (1 Bft)
01.10.2019 19:03 9,8 C 95 % 998,3 hPa 0,0 l/m 2,1 km/h (1 Bft) N-NW 345 0 min 0 W/m 9,0 C 9,8 C 6,4 km/h (2 Bft)
01.10.2019 19:06 9,8 C 95 % 998,2 hPa 0,0 l/m 0,1 km/h (0 Bft) N-NW 345 0 min 0 W/m 9,0 C 9,8 C 1,6 km/h (1 Bft)
01.10.2019 19:09 9,8 C 95 % 998,3 hPa 0,0 l/m 1,3 km/h (1 Bft) N-NW 345 0 min 0 W/m 9,0 C 9,8 C 3,2 km/h (1 Bft)
01.10.2019 19:12 9,8 C 95 % 998,3 hPa 0,0 l/m 2,5 km/h (1 Bft) N-NW 345 0 min 0 W/m 9,0 C 9,8 C 4,8 km/h (1 Bft)
01.10.2019 19:15 9,8 C 95 % 998,3 hPa 0,0 l/m 2,1 km/h (1 Bft) N-NW 345 0 min 0 W/m 9,0 C 9,8 C 4,8 km/h (1 Bft)
01.10.2019 19:18 9,8 C 95 % 998,3 hPa 0,0 l/m 1,1 km/h (1 Bft) N-NW 345 0 min 0 W/m 9,0 C 9,8 C 4,8 km/h (1 Bft)
01.10.2019 19:21 9,8 C 95 % 998,4 hPa 0,0 l/m 0,3 km/h (0 Bft) N-NW 345 0 min 0 W/m 9,0 C 9,8 C 3,2 km/h (1 Bft)
01.10.2019 19:24 9,7 C 95 % 998,3 hPa 0,0 l/m 0,5 km/h (0 Bft) N-NW 345 0 min 0 W/m 8,9 C 9,7 C 3,2 km/h (1 Bft)
01.10.2019 19:27 9,8 C 95 % 998,4 hPa 0,0 l/m 0,1 km/h (0 Bft) N-NW 345 0 min 0 W/m 9,0 C 9,8 C 1,6 km/h (1 Bft)
01.10.2019 19:30 9,7 C 95 % 998,4 hPa 0,0 l/m 0,7 km/h (0 Bft) N-NW 345 0 min 0 W/m 8,9 C 9,7 C 4,8 km/h (1 Bft)
01.10.2019 19:33 9,8 C 95 % 998,5 hPa 0,0 l/m 1,3 km/h (1 Bft) N-NW 345 0 min 0 W/m 9,0 C 9,8 C 4,8 km/h (1 Bft)
01.10.2019 19:36 9,8 C 95 % 998,6 hPa 0,0 l/m 0,2 km/h (0 Bft) N-NW 345 0 min 0 W/m 9,0 C 9,8 C 1,6 km/h (1 Bft)
01.10.2019 19:39 9,7 C 95 % 998,6 hPa 0,0 l/m 0,0 km/h (0 Bft) N-NW 345 0 min 0 W/m 8,9 C 9,7 C 0,0 km/h (0 Bft)
01.10.2019 19:42 9,7 C 95 % 998,6 hPa 0,0 l/m 2,1 km/h (1 Bft) N-NW 345 0 min 0 W/m 8,9 C 9,7 C 9,7 km/h (2 Bft)
01.10.2019 19:45 9,7 C 95 % 998,6 hPa 0,0 l/m 3,3 km/h (1 Bft) N-NW 345 0 min 0 W/m 8,9 C 9,7 C 8,0 km/h (2 Bft)
01.10.2019 19:48 9,7 C 95 % 998,6 hPa 0,0 l/m 1,6 km/h (1 Bft) N-NW 345 0 min 0 W/m 8,9 C 9,7 C 4,8 km/h (1 Bft)
01.10.2019 19:51 9,7 C 95 % 998,6 hPa 0,0 l/m 0,5 km/h (0 Bft) N-NW 345 0 min 0 W/m 8,9 C 9,7 C 3,2 km/h (1 Bft)
01.10.2019 19:54 9,6 C 94 % 998,4 hPa 0,0 l/m 0,3 km/h (0 Bft) N-NW 345 0 min 0 W/m 8,7 C 9,6 C 1,6 km/h (1 Bft)
01.10.2019 19:57 9,6 C 94 % 998,5 hPa 0,0 l/m 1,4 km/h (1 Bft) N-NW 345 0 min 0 W/m 8,7 C 9,6 C 4,8 km/h (1 Bft)
01.10.2019 20:00 9,6 C 94 % 998,4 hPa 0,0 l/m 1,2 km/h (1 Bft) N-NW 345 0 min 0 W/m 8,7 C 9,6 C 6,4 km/h (2 Bft)
01.10.2019 20:03 9,5 C 94 % 998,5 hPa 0,0 l/m 0,4 km/h (0 Bft) N-NW 345 0 min 0 W/m 8,6 C 9,5 C 1,6 km/h (1 Bft)
01.10.2019 20:06 9,4 C 94 % 998,6 hPa 0,0 l/m 0,8 km/h (0 Bft) N-NW 345 0 min 0 W/m 8,5 C 9,4 C 3,2 km/h (1 Bft)
01.10.2019 20:09 9,4 C 94 % 998,5 hPa 0,0 l/m 0,5 km/h (0 Bft) N-NW 345 0 min 0 W/m 8,5 C 9,4 C 1,6 km/h (1 Bft)
01.10.2019 20:12 9,3 C 94 % 998,4 hPa 0,0 l/m 1,0 km/h (0 Bft) N-NW 345 0 min 0 W/m 8,4 C 9,3 C 3,2 km/h (1 Bft)
01.10.2019 20:15 9,3 C 94 % 998,5 hPa 0,0 l/m 0,4 km/h (0 Bft) N-NW 345 0 min 0 W/m 8,4 C 9,3 C 1,6 km/h (1 Bft)
01.10.2019 20:18 9,2 C 94 % 998,5 hPa 0,0 l/m 0,6 km/h (0 Bft) N-NW 345 0 min 0 W/m 8,3 C 9,2 C 4,8 km/h (1 Bft)
01.10.2019 20:21 9,2 C 94 % 998,6 hPa 0,0 l/m 0,8 km/h (0 Bft) N-NW 345 0 min 0 W/m 8,3 C 9,2 C 4,8 km/h (1 Bft)
01.10.2019 20:24 9,2 C 94 % 998,6 hPa 0,0 l/m 1,3 km/h (1 Bft) N-NW 345 0 min 0 W/m 8,3 C 9,2 C 4,8 km/h (1 Bft)
01.10.2019 20:27 9,1 C 94 % 998,7 hPa 0,0 l/m 2,3 km/h (1 Bft) N-NW 345 0 min 0 W/m 8,2 C 9,1 C 8,0 km/h (2 Bft)
01.10.2019 20:30 9,1 C 94 % 998,7 hPa 0,0 l/m 0,8 km/h (0 Bft) N-NW 345 0 min 0 W/m 8,2 C 9,1 C 3,2 km/h (1 Bft)
01.10.2019 20:33 9,1 C 94 % 998,7 hPa 0,0 l/m 0,0 km/h (0 Bft) N-NW 345 0 min 0 W/m 8,2 C 9,1 C 0,0 km/h (0 Bft)
01.10.2019 20:36 9,0 C 94 % 998,7 hPa 0,0 l/m 0,0 km/h (0 Bft) N-NW 345 0 min 0 W/m 8,1 C 9,0 C 0,0 km/h (0 Bft)
01.10.2019 20:39 8,9 C 94 % 998,7 hPa 0,0 l/m 0,0 km/h (0 Bft) N-NW 345 0 min 0 W/m 8,0 C 8,9 C 0,0 km/h (0 Bft)
01.10.2019 20:42 8,9 C 93 % 998,8 hPa 0,0 l/m 0,0 km/h (0 Bft) N-NW 345 0 min 0 W/m 7,8 C 8,9 C 1,6 km/h (1 Bft)
01.10.2019 20:45 8,9 C 94 % 998,8 hPa 0,0 l/m 0,0 km/h (0 Bft) N-NW 345 0 min 0 W/m 8,0 C 8,9 C 1,6 km/h (1 Bft)
01.10.2019 20:48 8,9 C 94 % 998,9 hPa 0,0 l/m 0,0 km/h (0 Bft) N-NW 345 0 min 0 W/m 8,0 C 8,9 C 0,0 km/h (0 Bft)
01.10.2019 20:51 8,9 C 94 % 998,9 hPa 0,0 l/m 0,0 km/h (0 Bft) N-NW 345 0 min 0 W/m 8,0 C 8,9 C 0,0 km/h (0 Bft)
01.10.2019 20:54 8,9 C 94 % 998,8 hPa 0,0 l/m 0,0 km/h (0 Bft) N-NW 345 0 min 0 W/m 8,0 C 8,9 C 0,0 km/h (0 Bft)
01.10.2019 20:57 8,9 C 94 % 998,9 hPa 0,0 l/m 0,0 km/h (0 Bft) N-NW 345 0 min 0 W/m 8,0 C 8,9 C 0,0 km/h (0 Bft)
01.10.2019 21:00 8,9 C 94 % 998,9 hPa 0,0 l/m 0,0 km/h (0 Bft) N-NW 345 0 min 0 W/m 8,0 C 8,9 C 0,0 km/h (0 Bft)
01.10.2019 21:03 8,9 C 94 % 999,0 hPa 0,0 l/m 0,1 km/h (0 Bft) N-NW 345 0 min 0 W/m 8,0 C 8,9 C 1,6 km/h (1 Bft)
01.10.2019 21:06 8,9 C 94 % 999,0 hPa 0,0 l/m 0,0 km/h (0 Bft) N-NW 345 0 min 0 W/m 8,0 C 8,9 C 0,0 km/h (0 Bft)
01.10.2019 21:09 8,9 C 94 % 999,1 hPa 0,0 l/m 0,0 km/h (0 Bft) N-NW 345 0 min 0 W/m 8,0 C 8,9 C 0,0 km/h (0 Bft)
01.10.2019 21:12 8,9 C 94 % 999,1 hPa 0,0 l/m 0,0 km/h (0 Bft) N-NW 345 0 min 0 W/m 8,0 C 8,9 C 0,0 km/h (0 Bft)
01.10.2019 21:15 8,9 C 94 % 999,0 hPa 0,0 l/m 0,0 km/h (0 Bft) N-NW 345 0 min 0 W/m 8,0 C 8,9 C 0,0 km/h (0 Bft)
01.10.2019 21:18 8,9 C 94 % 999,1 hPa 0,0 l/m 0,0 km/h (0 Bft) N-NW 345 0 min 0 W/m 8,0 C 8,9 C 0,0 km/h (0 Bft)
01.10.2019 21:21 8,9 C 94 % 999,1 hPa 0,0 l/m 0,0 km/h (0 Bft) N-NW 345 0 min 0 W/m 8,0 C 8,9 C 0,0 km/h (0 Bft)
01.10.2019 21:24 8,9 C 93 % 999,1 hPa 0,0 l/m 0,0 km/h (0 Bft) N-NW 345 0 min 0 W/m 7,8 C 8,9 C 0,0 km/h (0 Bft)
01.10.2019 21:27 8,9 C 93 % 999,2 hPa 0,0 l/m 0,0 km/h (0 Bft) N-NW 345 0 min 0 W/m 7,8 C 8,9 C 0,0 km/h (0 Bft)
01.10.2019 21:30 8,9 C 93 % 999,1 hPa 0,0 l/m 0,0 km/h (0 Bft) N-NW 345 0 min 0 W/m 7,8 C 8,9 C 0,0 km/h (0 Bft)
01.10.2019 21:33 8,9 C 93 % 999,1 hPa 0,0 l/m 0,0 km/h (0 Bft) N-NW 345 0 min 0 W/m 7,8 C 8,9 C 0,0 km/h (0 Bft)
01.10.2019 21:36 8,9 C 93 % 999,1 hPa 0,0 l/m 0,0 km/h (0 Bft) N-NW 345 0 min 0 W/m 7,8 C 8,9 C 0,0 km/h (0 Bft)
01.10.2019 21:39 8,9 C 93 % 999,1 hPa 0,0 l/m 0,0 km/h (0 Bft) N-NW 345 0 min 0 W/m 7,8 C 8,9 C 0,0 km/h (0 Bft)
01.10.2019 21:42 8,9 C 93 % 999,1 hPa 0,0 l/m 0,0 km/h (0 Bft) N-NW 345 0 min 0 W/m 7,8 C 8,9 C 0,0 km/h (0 Bft)
01.10.2019 21:45 8,9 C 93 % 999,1 hPa 0,0 l/m 0,0 km/h (0 Bft) N-NW 345 0 min 0 W/m 7,8 C 8,9 C 0,0 km/h (0 Bft)
01.10.2019 21:48 8,9 C 93 % 999,2 hPa 0,0 l/m 0,0 km/h (0 Bft) N-NW 345 0 min 0 W/m 7,8 C 8,9 C 0,0 km/h (0 Bft)
01.10.2019 21:51 8,9 C 93 % 999,3 hPa 0,0 l/m 0,0 km/h (0 Bft) N-NW 345 0 min 0 W/m 7,8 C 8,9 C 0,0 km/h (0 Bft)
01.10.2019 21:54 8,9 C 93 % 999,3 hPa 0,0 l/m 0,0 km/h (0 Bft) N-NW 345 0 min 0 W/m 7,8 C 8,9 C 0,0 km/h (0 Bft)
01.10.2019 21:57 8,9 C 93 % 999,3 hPa 0,0 l/m 0,0 km/h (0 Bft) N-NW 345 0 min 0 W/m 7,8 C 8,9 C 0,0 km/h (0 Bft)
01.10.2019 22:00 8,9 C 93 % 999,3 hPa 0,0 l/m 0,0 km/h (0 Bft) N-NW 345 0 min 0 W/m 7,8 C 8,9 C 0,0 km/h (0 Bft)
01.10.2019 22:03 8,9 C 93 % 999,2 hPa 0,0 l/m 0,0 km/h (0 Bft) N-NW 345 0 min 0 W/m 7,8 C 8,9 C 0,0 km/h (0 Bft)
01.10.2019 22:06 8,9 C 93 % 999,3 hPa 0,0 l/m 0,0 km/h (0 Bft) N-NW 345 0 min 0 W/m 7,8 C 8,9 C 0,0 km/h (0 Bft)
01.10.2019 22:09 8,9 C 93 % 999,3 hPa 0,0 l/m 0,0 km/h (0 Bft) N-NW 345 0 min 0 W/m 7,8 C 8,9 C 0,0 km/h (0 Bft)
01.10.2019 22:12 8,9 C 94 % 999,2 hPa 0,0 l/m 0,0 km/h (0 Bft) N-NW 345 0 min 0 W/m 8,0 C 8,9 C 0,0 km/h (0 Bft)
01.10.2019 22:15 8,9 C 94 % 999,2 hPa 0,0 l/m 0,0 km/h (0 Bft) N-NW 345 0 min 0 W/m 8,0 C 8,9 C 0,0 km/h (0 Bft)
01.10.2019 22:18 8,9 C 94 % 999,2 hPa 0,0 l/m 0,0 km/h (0 Bft) N-NW 345 0 min 0 W/m 8,0 C 8,9 C 0,0 km/h (0 Bft)
01.10.2019 22:21 8,9 C 94 % 999,2 hPa 0,0 l/m 0,0 km/h (0 Bft) N-NW 345 0 min 0 W/m 8,0 C 8,9 C 0,0 km/h (0 Bft)
01.10.2019 22:24 9,0 C 93 % 999,2 hPa 0,0 l/m 0,0 km/h (0 Bft) N-NW 345 0 min 0 W/m 7,9 C 9,0 C 0,0 km/h (0 Bft)
01.10.2019 22:27 8,9 C 93 % 999,3 hPa 0,0 l/m 0,0 km/h (0 Bft) N-NW 345 0 min 0 W/m 7,8 C 8,9 C 0,0 km/h (0 Bft)
01.10.2019 22:30 8,9 C 93 % 999,3 hPa 0,0 l/m 0,0 km/h (0 Bft) N-NW 345 0 min 0 W/m 7,8 C 8,9 C 0,0 km/h (0 Bft)
01.10.2019 22:33 8,9 C 93 % 999,3 hPa 0,0 l/m 0,0 km/h (0 Bft) N-NW 345 0 min 0 W/m 7,8 C 8,9 C 0,0 km/h (0 Bft)
01.10.2019 22:36 8,9 C 93 % 999,3 hPa 0,0 l/m 0,0 km/h (0 Bft) N-NW 345 0 min 0 W/m 7,8 C 8,9 C 0,0 km/h (0 Bft)
01.10.2019 22:39 8,9 C 93 % 999,2 hPa 0,0 l/m 0,0 km/h (0 Bft) N-NW 345 0 min 0 W/m 7,8 C 8,9 C 0,0 km/h (0 Bft)
01.10.2019 22:42 8,9 C 93 % 999,2 hPa 0,0 l/m 0,0 km/h (0 Bft) N-NW 345 0 min 0 W/m 7,8 C 8,9 C 0,0 km/h (0 Bft)
01.10.2019 22:45 8,9 C 93 % 999,2 hPa 0,0 l/m 0,0 km/h (0 Bft) N-NW 345 0 min 0 W/m 7,8 C 8,9 C 0,0 km/h (0 Bft)
01.10.2019 22:48 8,9 C 93 % 999,3 hPa 0,0 l/m 0,0 km/h (0 Bft) N-NW 345 0 min 0 W/m 7,8 C 8,9 C 0,0 km/h (0 Bft)
01.10.2019 22:51 8,9 C 93 % 999,2 hPa 0,0 l/m 0,0 km/h (0 Bft) N-NW 345 0 min 0 W/m 7,8 C 8,9 C 0,0 km/h (0 Bft)
01.10.2019 22:54 8,9 C 93 % 999,3 hPa 0,0 l/m 0,0 km/h (0 Bft) N-NW 345 0 min 0 W/m 7,8 C 8,9 C 0,0 km/h (0 Bft)
01.10.2019 22:57 8,8 C 93 % 999,3 hPa 0,0 l/m 0,0 km/h (0 Bft) N-NW 345 0 min 0 W/m 7,7 C 8,8 C 0,0 km/h (0 Bft)
01.10.2019 23:00 8,8 C 94 % 999,4 hPa 0,0 l/m 0,0 km/h (0 Bft) N-NW 345 0 min 0 W/m 7,9 C 8,8 C 0,0 km/h (0 Bft)
01.10.2019 23:03 8,8 C 94 % 999,4 hPa 0,0 l/m 0,0 km/h (0 Bft) N-NW 345 0 min 0 W/m 7,9 C 8,8 C 0,0 km/h (0 Bft)
01.10.2019 23:06 8,8 C 94 % 999,5 hPa 0,0 l/m 0,0 km/h (0 Bft) N-NW 345 0 min 0 W/m 7,9 C 8,8 C 0,0 km/h (0 Bft)
01.10.2019 23:09 8,8 C 94 % 999,5 hPa 0,0 l/m 0,0 km/h (0 Bft) N-NW 345 0 min 0 W/m 7,9 C 8,8 C 0,0 km/h (0 Bft)
01.10.2019 23:12 8,8 C 94 % 999,5 hPa 0,0 l/m 0,0 km/h (0 Bft) N-NW 345 0 min 0 W/m 7,9 C 8,8 C 0,0 km/h (0 Bft)
01.10.2019 23:15 8,8 C 94 % 999,5 hPa 0,0 l/m 0,0 km/h (0 Bft) N-NW 345 0 min 0 W/m 7,9 C 8,8 C 0,0 km/h (0 Bft)
01.10.2019 23:18 8,8 C 94 % 999,5 hPa 0,0 l/m 0,0 km/h (0 Bft) N-NW 345 0 min 0 W/m 7,9 C 8,8 C 0,0 km/h (0 Bft)
01.10.2019 23:21 8,8 C 94 % 999,5 hPa 0,0 l/m 0,0 km/h (0 Bft) N-NW 345 0 min 0 W/m 7,9 C 8,8 C 0,0 km/h (0 Bft)
01.10.2019 23:24 8,8 C 94 % 999,5 hPa 0,0 l/m 0,0 km/h (0 Bft) N-NW 345 0 min 0 W/m 7,9 C 8,8 C 0,0 km/h (0 Bft)
01.10.2019 23:27 8,8 C 94 % 999,5 hPa 0,0 l/m 0,0 km/h (0 Bft) N-NW 345 0 min 0 W/m 7,9 C 8,8 C 0,0 km/h (0 Bft)
01.10.2019 23:30 8,8 C 94 % 999,5 hPa 0,0 l/m 0,0 km/h (0 Bft) N-NW 345 0 min 0 W/m 7,9 C 8,8 C 0,0 km/h (0 Bft)
01.10.2019 23:33 8,8 C 94 % 999,4 hPa 0,0 l/m 0,0 km/h (0 Bft) N-NW 345 0 min 0 W/m 7,9 C 8,8 C 0,0 km/h (0 Bft)
01.10.2019 23:36 8,8 C 94 % 999,4 hPa 0,0 l/m 0,0 km/h (0 Bft) N-NW 345 0 min 0 W/m 7,9 C 8,8 C 0,0 km/h (0 Bft)
01.10.2019 23:39 8,8 C 94 % 999,3 hPa 0,0 l/m 0,0 km/h (0 Bft) N-NW 345 0 min 0 W/m 7,9 C 8,8 C 0,0 km/h (0 Bft)
01.10.2019 23:42 8,8 C 94 % 999,4 hPa 0,0 l/m 0,0 km/h (0 Bft) N-NW 345 0 min 0 W/m 7,9 C 8,8 C 0,0 km/h (0 Bft)
01.10.2019 23:45 8,8 C 94 % 999,5 hPa 0,0 l/m 0,0 km/h (0 Bft) N-NW 345 0 min 0 W/m 7,9 C 8,8 C 0,0 km/h (0 Bft)
01.10.2019 23:48 8,8 C 94 % 999,5 hPa 0,0 l/m 0,0 km/h (0 Bft) N-NW 345 0 min 0 W/m 7,9 C 8,8 C 0,0 km/h (0 Bft)
01.10.2019 23:51 8,8 C 94 % 999,5 hPa 0,0 l/m 0,0 km/h (0 Bft) N-NW 345 0 min 0 W/m 7,9 C 8,8 C 0,0 km/h (0 Bft)
01.10.2019 23:54 8,8 C 94 % 999,5 hPa 0,0 l/m 0,0 km/h (0 Bft) N-NW 345 0 min 0 W/m 7,9 C 8,8 C 0,0 km/h (0 Bft)
01.10.2019 23:57 8,8 C 94 % 999,5 hPa 0,0 l/m 0,0 km/h (0 Bft) N-NW 345 0 min 0 W/m 7,9 C 8,8 C 0,0 km/h (0 Bft)
_ Min-Zeit 22:57 20:42 11:48 - 05:06 - - - - 22:57 14:00 05:06
Minimum _ 8,8 C 93 % 995,2 hPa - 0,0 km/h (0 Bft) - - - - 7,7 C 8,8 C 0,0 km/h (0 Bft)
_ Max-Zeit 00:27 03:09 00:00 00:54 00:06 - - 00:00 12:30 00:27 00:42 12:15
Maximum _ 12,7 C 96 % 1005,1 hPa 0,8 l/m 11,3 km/h
S-SW (2 Bft)
- - 0 min 174 W/m 11,9 C 12,6 C 20,9 km/h
N-NO (4 Bft)
Durchschnitt _ 11,0 C 95 % 998,8 hPa #9,4 l/m 3,7 km/h (1 Bft) SW - #0 min. 44 W/m 10,3 C 10,8 C 7,9 km/h (2 Bft)
2019 Cux-Wetter.de -Die Nutzung der Wetterdaten nur mit ausdrcklicher Genehmigung